GFSFLT1_sfc_temp_003.txt.gz
Temp
72 71 71 71 67 71 67 64 63 67 68 68 63 63 63 62 62 63 65 63 63 61 61 61 60 59 57 57 56 57 56 58
70 70 69 68 69 68 65 63 63 65 60 60 59 60 60 61 62 63 63 64 65 62 59 58 57 57 55 56 55 55 56 55
68 66 65 62 65 65 63 62 61 62 60 59 60 60 61 61 61 62 63 61 61 62 58 57 56 55 54 54 54 52 52 53
65 65 61 62 62 62 63 63 62 61 61 62 61 59 58 58 59 59 60 59 59 58 57 55 54 53 52 52 52 51 49 50
65 62 59 60 58 61 62 63 64 64 61 58 56 54 54 55 55 55 56 57 57 58 56 54 52 51 51 50 55 49 48 45
60 60 61 60 60 59 60 62 63 63 61 59 56 54 54 54 54 52 52 53 54 55 54 52 51 50 49 48 47 46 45 44
61 61 62 60 59 60 61 62 62 61 60 60 57 55 54 51 50 49 50 50 51 53 54 51 51 49 48 47 46 45 43 46
60 60 59 59 58 59 60 61 62 61 58 57 56 54 52 49 49 48 49 49 49 50 49 48 47 47 47 45 44 43 42 40
60 61 59 60 61 61 60 62 62 63 58 55 53 52 50 50 53 52 51 48 48 49 47 47 47 47 45 43 42 42 43 40
61 64 65 63 63 59 58 59 59 57 55 52 52 54 54 52 54 51 47 48 52 47 46 45 45 45 44 44 41 40 40 39
60 61 58 57 57 56 56 56 55 54 52 52 54 54 54 52 48 47 46 46 47 46 45 44 44 44 43 41 39 38 38 37
56 56 56 56 55 55 54 54 55 52 55 55 54 54 51 49 47 46 46 45 45 45 45 44 43 42 41 39 38 38 38 38
55 55 55 54 53 54 53 53 52 52 53 52 50 50 51 47 46 46 45 45 45 44 43 42 42 41 39 38 37 38 37 36
53 53 53 53 53 53 52 52 52 53 52 51 49 51 48 46 46 45 45 44 43 43 42 41 41 40 39 38 37 36 35 35
52 51 51 52 52 51 51 51 51 51 51 49 48 47 48 45 46 45 45 45 43 42 42 42 41 40 38 37 36 33 32 33
51 51 50 50 50 50 51 50 50 52 52 50 47 47 46 44 43 45 45 44 42 42 41 40 39 39 38 32 32 30 30 30
50 51 51 51 51 50 50 49 49 51 50 50 52 44 43 43 45 43 43 42 41 40 39 38 36 39 34 34 31 28 30 29
49 50 51 50 49 49 46 47 48 48 49 50 45 44 43 43 43 43 43 41 38 37 36 36 35 31 34 34 34 29 28 27
49 49 49 48 47 47 47 47 47 46 45 46 45 43 42 43 43 43 41 40 37 35 34 34 33 35 35 36 33 27 27 28

GFSFLT1_sfc_temp_009.txt.gz
Temp
59 58 59 59 58 60 60 60 60 58 59 58 56 56 56 56 56 57 58 57 57 55 54 52 52 52 51 50 50 50 50 49
58 58 58 59 57 58 57 59 60 58 56 55 54 53 54 54 56 56 56 57 57 52 51 51 51 50 48 49 48 48 48 48
58 58 57 55 56 56 58 57 57 56 55 54 54 53 54 57 58 57 56 54 53 53 50 49 49 48 47 46 46 45 45 45
56 57 55 55 56 56 57 57 58 57 57 55 54 54 54 53 51 50 51 52 52 51 50 48 47 46 45 44 44 43 42 43
56 55 54 55 53 55 57 58 58 58 57 56 55 53 52 49 48 48 49 50 50 50 49 47 46 45 43 44 44 41 41 39
55 55 56 55 54 54 55 57 58 57 56 55 52 50 48 47 47 47 48 48 48 49 47 48 47 45 42 41 41 40 40 38
54 56 56 54 53 53 53 55 55 55 54 52 50 48 46 46 46 46 46 46 47 47 49 46 44 43 41 40 40 39 38 38
56 57 54 52 50 51 54 52 50 50 49 48 48 47 47 48 50 50 50 48 46 45 44 43 42 42 41 41 39 38 37 35
52 51 50 50 51 50 50 51 50 51 50 50 49 50 49 51 52 50 47 44 44 43 42 43 44 43 41 39 38 37 36 34
50 50 50 50 50 50 50 51 51 51 51 50 50 49 49 48 47 45 43 42 45 42 45 44 44 42 41 39 37 36 35 34
49 49 50 50 50 50 50 50 50 49 49 48 49 47 47 46 45 43 42 43 46 46 44 42 43 43 42 38 36 36 35 34
49 49 51 50 49 49 47 48 48 46 46 46 45 45 45 44 43 42 42 42 44 44 43 43 43 41 39 38 36 36 35 34
49 49 50 49 47 46 46 45 45 45 45 44 44 44 44 42 42 41 43 43 41 40 41 42 41 40 38 37 36 35 33 32
47 47 47 47 46 47 45 45 44 44 44 42 42 41 41 40 40 42 43 41 41 41 41 39 38 38 38 36 34 33 31 31
46 46 47 48 46 45 44 43 43 43 43 42 41 40 41 40 39 40 40 40 39 38 39 38 38 38 37 35 33 31 31 32
47 45 46 46 44 44 43 43 44 43 43 41 41 40 40 40 39 39 39 39 40 38 37 38 38 36 35 32 32 31 30 29
48 48 47 46 44 43 44 43 43 43 42 41 42 41 41 40 39 38 40 39 38 37 39 36 33 36 36 36 33 29 30 29
46 45 45 44 43 43 42 43 43 42 41 41 41 40 39 38 38 38 37 36 36 36 34 32 32 32 35 36 35 31 29 26
45 44 44 43 42 41 42 42 41 40 40 39 39 38 38 37 37 36 35 36 34 32 31 31 31 32 35 34 32 30 26 26

GFSFLT1_sfc_temp_012.txt.gz
Temp
55 56 57 57 59 59 59 59 59 59 57 56 55 54 53 54 53 54 55 58 56 56 54 51 50 49 48 48 48 48 48 47
54 55 56 57 56 57 57 57 57 56 54 54 53 52 52 53 53 54 56 57 55 51 49 49 48 47 46 46 46 46 46 45
55 55 54 55 54 55 56 56 56 56 55 53 53 52 52 52 52 51 51 51 51 51 48 47 46 46 45 44 44 44 44 43
54 55 53 53 53 54 55 55 55 55 55 53 52 52 52 50 49 48 48 50 49 48 48 46 46 45 44 42 42 42 40 41
55 54 54 54 52 53 54 55 55 56 55 54 53 50 49 46 46 46 46 48 48 48 48 46 45 44 45 42 43 41 41 37
56 54 54 52 53 52 52 54 54 54 53 51 49 46 45 45 45 46 46 46 48 48 47 45 45 43 41 41 39 39 39 37
52 53 55 55 52 51 51 50 49 50 49 48 48 46 45 46 46 46 45 45 45 45 46 43 42 41 40 39 39 38 37 36
50 51 53 50 48 49 50 49 49 49 49 49 48 48 47 47 47 45 46 45 44 43 42 41 41 42 44 42 39 38 36 35
51 48 47 48 48 48 48 49 49 49 48 48 48 47 46 46 45 45 44 42 42 41 41 41 41 43 43 42 41 37 37 36
47 48 48 48 48 48 48 49 49 48 47 46 45 46 45 44 44 43 42 42 43 41 41 42 41 43 41 39 36 37 37 36
47 47 47 47 47 46 48 48 47 46 45 45 45 44 44 43 41 41 41 40 42 44 43 42 42 41 41 40 38 36 35 34
46 46 47 47 50 48 49 47 47 45 44 44 43 43 42 41 40 40 39 40 42 42 42 40 39 40 38 36 35 34 34 33
46 46 48 48 47 48 45 45 46 45 44 43 41 41 41 40 39 39 39 40 40 40 39 41 40 37 36 34 34 34 33 32
45 45 48 47 46 45 46 46 46 43 42 41 41 40 39 39 39 39 39 38 38 39 41 40 37 36 36 36 33 33 32 32
44 44 46 44 46 47 46 44 42 42 42 40 40 39 39 38 38 37 37 38 39 41 38 37 36 37 36 34 33 32 31 31
44 44 43 46 46 44 43 42 42 42 41 40 40 39 39 38 38 37 37 37 41 40 36 37 36 36 36 32 33 31 30 29
47 46 47 46 44 42 42 41 41 41 40 39 40 39 39 38 37 37 37 36 36 35 35 34 33 35 36 36 34 30 30 29
47 47 46 45 43 41 40 41 41 40 39 40 39 38 37 37 36 36 35 34 34 36 33 32 30 31 36 36 33 30 28 27
46 44 43 43 40 40 40 40 39 38 38 38 38 37 36 36 35 34 34 34 33 32 30 30 30 32 34 34 32 27 26 26

GFSFLT1_sfc_temp_015.txt.gz
Temp
61 63 64 65 66 66 66 64 63 61 60 61 61 61 62 65 65 66 65 66 64 63 63 61 63 62 61 62 61 62 61 59
62 62 63 64 65 65 65 63 63 64 65 63 63 63 64 64 65 63 63 63 62 62 62 62 61 61 60 60 61 58 60 58
60 62 64 65 65 65 65 64 66 68 67 66 67 65 64 63 62 61 61 61 61 61 60 61 61 61 59 58 57 57 57 55
60 61 62 62 62 63 65 66 66 66 65 65 64 64 63 62 62 61 60 60 61 61 60 61 60 59 58 55 54 53 53 54
62 60 60 61 61 63 64 64 64 64 63 64 62 64 62 59 60 61 63 60 61 62 60 58 56 56 54 54 54 52 52 49
61 61 61 62 62 62 62 61 62 61 62 61 61 59 59 60 60 59 58 59 58 58 57 56 55 55 52 52 52 51 52 50
61 62 62 60 60 59 59 60 60 61 61 61 60 59 58 60 59 58 59 58 59 57 55 54 53 53 52 52 50 50 50 50
59 60 60 59 58 58 59 60 58 59 58 58 58 57 57 56 57 57 56 57 57 57 53 52 52 51 51 50 50 48 49 49
59 58 58 57 57 58 59 59 58 58 57 57 58 57 58 58 57 56 55 55 55 54 53 52 51 51 51 50 50 49 49 48
57 56 57 57 57 57 57 58 57 56 56 57 55 56 55 54 54 54 54 53 53 51 51 50 50 50 50 50 49 48 48 48
56 56 55 56 57 56 56 57 56 56 56 55 54 54 54 54 53 52 52 52 51 51 50 51 50 50 51 49 48 49 46 47
55 55 55 56 56 57 55 52 57 55 55 53 53 53 53 53 53 52 51 51 51 51 51 50 49 49 47 46 47 46 44 45
55 55 54 54 55 54 50 56 56 55 53 52 52 53 53 51 51 51 51 49 49 48 48 47 48 47 46 45 46 46 44 44
53 53 54 52 51 52 55 53 53 53 52 53 52 51 50 50 50 50 49 48 48 48 48 46 44 46 45 46 44 43 43 42
53 53 53 52 52 54 51 51 52 52 52 52 50 50 50 49 49 49 48 48 47 47 45 42 44 45 45 44 43 42 41 40
51 51 52 53 51 50 52 52 51 51 51 51 50 50 49 49 48 48 47 47 47 47 45 43 43 43 43 42 42 41 39 39
52 52 52 50 53 53 51 50 50 50 50 49 49 48 48 48 47 46 46 46 46 45 44 43 42 42 37 37 38 39 38 37
51 51 53 53 53 51 51 51 50 49 48 48 48 47 46 46 46 46 45 44 44 44 42 42 40 40 36 35 33 38 36 35
51 52 52 53 52 50 49 49 48 46 46 46 47 46 45 45 44 44 44 43 42 42 41 40 39 38 34 33 32 36 35 34

GFSFLT1_sfc_temp_021.txt.gz
Temp
83 84 86 88 87 84 79 76 73 70 69 70 74 73 74 76 77 77 76 75 73 75 74 71 71 72 71 69 66 68 68 68
82 82 82 84 83 81 73 71 70 69 75 75 75 73 75 76 77 75 74 73 73 72 73 72 71 69 68 67 66 64 64 67
79 79 80 80 80 79 73 74 73 76 79 79 78 78 78 77 75 73 73 72 72 72 69 69 69 67 66 65 64 62 63 64
77 77 78 78 76 74 75 76 78 80 80 79 78 77 74 74 74 74 72 71 71 70 69 68 66 66 64 64 63 60 58 60
78 77 77 76 76 78 80 79 79 78 79 78 76 77 74 72 73 72 72 71 69 70 69 67 65 65 63 63 65 60 58 55
77 77 77 78 77 77 77 77 77 77 76 75 74 72 71 72 71 68 69 70 70 70 69 67 64 64 63 62 60 59 59 56
78 78 77 75 76 74 74 75 74 74 73 72 70 68 68 68 67 66 67 67 67 67 66 64 63 63 61 61 60 58 56 55
76 75 75 73 72 72 73 73 71 71 70 69 68 67 66 65 64 64 63 64 63 63 62 61 62 62 62 60 57 55 54 54
75 75 74 73 72 72 72 72 70 70 69 68 66 64 62 64 64 63 63 62 62 62 61 61 60 61 60 55 55 53 54 53
74 75 74 73 71 71 71 71 70 69 67 65 62 59 63 64 63 63 62 61 62 61 60 59 60 59 58 54 53 53 54 53
75 75 72 72 72 71 70 70 68 66 64 62 59 62 64 64 63 61 60 60 60 59 58 58 58 58 55 56 55 55 52 51
74 73 72 72 71 70 69 68 66 64 62 60 60 63 63 63 62 61 60 59 59 58 58 57 56 57 57 55 53 52 51 50
75 73 71 71 69 68 68 66 66 64 64 62 63 63 64 62 61 61 60 58 58 57 57 56 57 57 55 53 51 51 50 50
75 73 70 69 68 67 67 65 64 65 61 63 64 63 63 61 60 60 59 58 57 57 56 55 55 53 50 53 52 51 51 50
74 72 70 69 68 67 66 64 64 61 63 65 64 62 62 61 60 59 58 57 55 55 55 55 54 53 52 51 50 50 49 49
72 70 69 69 68 66 66 63 62 63 64 63 62 62 61 60 59 58 57 56 55 56 55 54 54 52 50 49 49 48 47 46
71 70 70 68 67 65 64 62 62 64 62 61 62 61 60 59 58 56 56 55 55 54 53 53 52 51 36 37 39 46 46 45
70 69 69 69 68 66 63 63 64 62 61 61 60 59 58 57 57 56 55 54 54 52 52 51 49 47 37 36 35 43 45 44
70 70 69 70 69 67 64 65 63 60 59 58 58 57 56 56 55 55 54 54 52 51 50 50 49 44 36 35 35 41 44 43

GFSFLT1_sfc_temp_024.txt.gz
Temp
81 81 82 83 80 76 74 72 68 69 65 64 68 68 68 68 69 68 69 67 67 65 63 62 62 61 60 59 57 58 56 55
80 80 81 80 78 74 72 67 65 68 65 65 68 66 68 68 69 68 68 67 67 64 62 62 61 59 58 58 56 54 53 54
78 78 78 78 77 72 69 68 67 69 69 70 71 69 69 68 66 66 66 66 65 65 62 60 59 57 56 55 54 51 52 52
76 76 76 75 71 70 71 70 70 71 72 74 71 69 66 65 65 63 64 65 65 64 62 59 57 56 54 53 53 52 48 49
77 76 74 68 69 69 72 72 73 74 73 71 67 66 64 64 63 63 64 65 64 64 62 59 58 56 54 53 56 50 49 45
76 75 72 71 72 72 73 74 73 72 71 69 67 64 63 63 62 61 62 61 61 61 59 56 54 54 54 53 52 50 49 46
77 77 75 74 73 71 70 70 71 70 68 66 63 60 60 59 58 56 58 58 57 57 58 54 54 53 52 52 51 51 49 46
74 73 72 71 69 68 68 69 68 67 64 63 61 60 58 56 55 56 56 55 54 54 54 53 52 52 53 52 49 48 46 44
73 72 71 69 68 68 69 68 67 66 64 62 60 59 57 56 58 57 55 54 53 54 53 53 52 53 52 51 48 47 46 45
72 72 70 69 68 67 66 67 67 65 62 60 57 57 56 56 58 57 54 54 56 53 52 51 51 51 51 49 47 46 46 44
72 72 69 69 69 67 66 67 65 63 61 58 58 57 58 58 57 55 54 53 53 52 52 51 51 50 49 49 47 47 45 43
72 72 71 70 69 67 66 66 63 61 60 58 56 57 58 58 56 55 54 53 53 52 52 51 50 50 49 48 46 46 45 43
73 72 71 69 67 67 65 63 63 62 60 58 57 58 58 56 56 56 54 53 53 52 52 51 51 50 48 46 45 46 44 43
74 72 69 68 67 65 64 63 62 61 61 60 59 58 57 57 56 55 55 53 52 51 51 49 49 49 48 47 46 44 43 43
74 71 69 68 67 65 64 62 62 61 61 60 57 57 56 56 55 54 53 53 51 50 50 49 49 49 49 48 47 43 42 43
74 72 69 68 66 65 65 63 61 60 58 58 56 58 58 56 55 54 53 51 51 50 49 48 48 48 46 43 43 41 40 40
74 73 71 68 67 66 64 62 60 60 57 56 59 58 57 55 54 52 51 50 50 49 48 47 46 47 38 38 38 37 39 39
71 70 70 68 68 65 62 62 60 58 57 58 58 57 55 53 53 53 51 49 49 48 47 47 45 38 37 37 36 37 36 36
70 70 69 69 68 66 63 63 60 57 56 56 55 55 54 52 50 50 49 48 47 46 44 45 45 40 37 36 35 33 35 36

GFSFLT1_sfc_temp_027.txt.gz
Temp
72 71 73 73 71 69 68 65 62 61 60 59 59 60 60 60 60 61 62 62 61 59 58 58 57 55 54 54 53 53 51 50
72 71 71 72 69 68 65 64 62 61 59 58 59 59 60 59 60 61 61 61 61 57 56 56 55 54 53 53 51 50 49 48
71 70 68 70 68 64 64 64 63 62 61 62 62 61 59 59 59 59 60 60 60 60 57 55 55 53 52 50 49 47 47 46
68 69 66 65 64 62 63 64 65 65 64 66 62 61 58 57 56 56 58 60 60 59 57 55 53 52 50 49 48 47 44 45
70 68 64 63 63 63 63 65 64 66 65 63 63 61 58 55 55 56 57 59 58 57 55 52 50 50 49 48 52 47 45 42
68 67 63 64 66 65 66 64 65 68 68 67 58 57 56 55 54 53 54 54 56 56 53 50 49 48 47 47 47 46 45 43
67 65 66 65 65 62 62 64 64 61 59 58 57 56 53 52 50 50 54 55 51 54 53 50 50 48 47 47 46 45 43 42
64 64 64 64 62 65 65 61 59 59 57 55 54 53 52 51 51 50 54 50 49 48 49 48 47 47 48 47 45 44 43 41
63 62 61 60 60 60 60 60 58 58 56 54 53 53 50 51 51 51 51 51 49 49 50 48 48 48 46 46 45 44 43 41
62 62 61 60 59 59 58 58 58 56 54 52 52 52 52 51 52 52 51 50 53 49 49 47 47 47 46 45 43 43 42 41
62 62 60 61 59 59 57 57 57 54 53 51 52 52 52 52 52 52 50 49 50 49 48 47 46 46 46 44 43 43 41 40
62 61 62 62 61 59 57 56 54 53 52 52 51 51 52 53 52 52 52 51 50 48 48 47 47 46 45 43 42 43 42 41
63 62 62 61 60 59 57 54 55 53 52 52 51 52 55 55 54 53 51 49 49 48 48 48 47 46 45 43 42 42 41 41
63 62 62 61 60 60 57 56 56 53 53 52 52 55 55 54 53 52 51 48 48 48 48 46 46 45 44 44 44 42 41 41
64 63 63 62 61 60 58 56 55 55 54 52 54 54 54 54 53 51 49 50 47 47 46 46 45 46 46 46 43 41 41 41
62 62 61 61 59 58 57 55 54 55 52 53 54 54 54 53 52 51 50 49 48 49 48 46 46 44 45 41 41 39 38 37
63 62 60 60 59 57 57 55 54 55 54 54 55 54 53 51 50 50 49 46 47 47 46 45 43 45 38 39 38 37 37 35
62 61 60 59 58 59 55 55 55 54 54 54 53 51 51 48 48 48 47 46 46 46 45 44 43 39 38 38 37 35 35 33
62 61 61 59 57 56 57 58 56 53 52 51 49 47 48 48 48 46 45 45 44 43 43 43 41 39 37 37 36 32 32 33

GFSFLT1_sfc_temp_030.txt.gz
Temp
68 68 69 68 68 66 64 63 60 60 59 58 58 58 58 58 58 59 60 59 58 56 54 53 54 53 51 51 51 50 49 47
70 69 68 67 67 64 63 61 60 60 58 57 57 57 57 57 58 59 59 58 57 55 53 53 53 52 51 51 49 48 47 45
67 67 67 67 65 65 62 62 61 62 60 58 59 58 57 56 56 56 57 57 56 56 53 53 53 52 50 49 47 45 45 44
66 65 65 65 64 62 62 61 62 62 62 60 58 57 55 54 53 54 55 57 57 56 54 52 50 50 49 48 47 46 43 43
66 66 64 63 61 62 62 63 63 62 61 60 59 59 58 53 53 53 54 56 54 54 52 49 49 47 46 45 49 44 42 41
65 63 63 64 62 61 61 62 62 62 61 59 58 56 54 53 52 52 52 51 52 52 51 48 47 46 45 45 44 43 42 40
63 62 63 61 62 61 61 60 60 61 61 59 58 54 52 51 49 49 49 49 50 50 50 47 47 46 45 45 43 43 42 41
59 60 60 60 60 60 61 61 57 56 56 54 54 52 53 52 49 49 49 50 50 49 48 49 46 46 45 45 43 42 41 40
61 60 60 60 60 59 59 59 54 54 55 53 53 53 52 50 50 52 51 50 49 49 49 47 46 46 44 43 42 42 41 39
58 58 57 55 56 56 58 58 57 54 52 54 53 52 52 51 52 51 50 49 51 49 47 45 48 47 44 43 41 41 40 40
58 58 58 58 57 56 54 57 56 54 52 52 53 53 52 51 51 51 51 51 51 50 49 48 46 45 44 43 41 41 40 39
59 60 60 60 60 57 56 56 53 52 52 50 51 52 51 52 52 51 51 51 51 49 47 48 46 45 44 41 41 41 41 40
61 60 59 58 58 56 57 55 54 54 53 50 50 50 52 53 52 52 49 50 49 47 46 46 46 46 44 42 40 42 42 40
60 59 59 59 59 58 57 55 54 53 52 51 49 51 52 52 52 49 48 46 46 45 45 45 45 45 45 44 42 41 39 40
60 59 59 60 60 59 55 53 53 53 52 51 50 53 53 50 50 47 46 46 47 45 45 45 45 44 45 45 42 40 39 39
57 57 58 57 56 54 53 53 53 53 52 51 52 53 52 50 46 46 46 46 46 46 44 45 44 44 43 42 41 38 36 36
59 59 57 56 56 54 53 53 52 52 53 52 53 52 50 48 47 46 45 46 47 46 44 43 41 43 40 40 38 35 37 35
57 56 56 55 55 54 53 52 52 52 51 52 51 49 47 46 47 46 45 44 44 44 42 42 42 40 38 39 38 35 34 32
55 54 55 54 53 53 51 52 50 51 49 48 48 46 45 45 44 43 42 42 42 41 41 41 40 40 38 38 37 32 32 32

GFSFLT1_sfc_temp_033.txt.gz
Temp
64 65 65 65 63 63 62 61 59 59 58 58 58 57 57 57 57 58 58 57 57 55 53 52 52 51 50 49 49 48 46 45
65 65 66 65 63 61 61 59 58 59 57 57 55 55 55 55 56 57 57 56 55 53 52 52 51 50 49 49 47 46 45 44
64 64 64 64 63 62 61 61 59 60 59 57 57 56 55 55 55 55 55 55 54 54 52 51 50 49 48 46 46 44 43 43
64 63 63 63 62 62 62 61 60 61 59 58 55 54 54 53 52 52 53 55 55 53 51 49 48 48 46 45 45 44 43 43
65 64 63 63 62 63 63 62 60 61 59 58 56 54 54 52 51 52 52 53 51 51 49 48 46 46 45 45 46 43 41 40
63 64 64 64 62 60 61 60 61 61 60 59 55 53 52 51 50 50 49 48 50 51 49 48 47 45 44 43 43 42 41 39
60 62 63 62 59 60 59 60 60 60 59 57 55 53 51 51 48 47 46 46 48 47 49 47 49 47 46 45 42 42 42 40
57 59 60 59 59 59 59 60 59 59 59 55 54 53 53 53 50 48 48 47 47 48 50 48 48 48 48 46 43 42 40 39
59 60 60 59 59 60 60 59 55 55 55 52 51 51 50 52 52 51 51 50 49 49 49 49 49 49 47 42 41 41 40 39
58 59 60 59 59 59 58 55 54 52 51 51 50 51 51 52 52 52 50 49 50 49 48 48 48 47 44 42 40 40 39 39
55 57 56 57 56 54 54 55 54 52 52 53 53 54 54 53 52 50 50 50 50 49 48 48 47 46 44 41 40 41 41 38
56 58 57 56 55 55 54 54 52 51 52 52 50 49 49 50 52 52 52 51 50 50 49 47 45 44 44 42 41 40 39 38
57 57 56 55 56 55 55 55 54 53 51 49 49 49 50 52 52 51 50 50 49 48 46 45 44 44 44 41 39 40 39 37
55 54 55 56 57 56 56 53 51 50 51 51 49 50 52 52 51 50 48 45 45 45 44 43 44 44 44 42 40 39 37 37
54 54 55 57 57 55 52 50 50 51 52 51 49 51 52 52 52 49 48 46 45 45 45 45 44 43 42 42 41 38 37 37
54 53 53 54 52 52 50 50 51 52 50 50 51 52 52 51 48 47 46 46 46 46 46 45 44 43 43 40 39 37 36 35
55 55 55 54 53 51 50 50 51 50 50 49 50 50 47 46 46 45 45 44 45 45 44 43 42 43 41 40 38 35 35 33
53 53 53 53 51 52 50 49 48 48 50 50 48 46 45 45 45 44 43 42 42 41 41 42 41 40 40 39 38 34 33 32
46 45 48 48 48 47 47 48 47 46 45 45 45 44 44 44 43 42 40 40 40 40 40 40 39 39 39 38 37 33 31 31

GFSFLT1_sfc_temp_036.txt.gz
Temp
61 61 61 61 60 62 61 60 59 58 57 57 57 57 57 57 57 57 58 57 56 54 53 52 51 50 49 48 48 46 46 46
62 61 61 60 60 60 60 58 57 58 56 56 55 55 55 55 55 56 56 55 55 53 51 50 50 49 48 48 46 46 44 43
61 60 60 61 61 60 59 59 57 59 59 56 56 55 54 54 54 54 54 54 53 53 50 49 48 47 46 46 45 43 43 42
61 61 61 62 61 60 61 59 58 59 58 56 53 53 52 52 51 51 52 53 53 51 49 48 46 46 44 44 44 44 42 41
61 61 60 61 61 61 61 59 58 59 58 58 55 55 52 51 50 50 50 51 50 49 48 46 45 44 44 44 45 43 43 40
61 61 63 62 60 58 60 60 59 61 60 59 56 54 53 51 50 48 47 47 48 48 47 45 44 44 45 47 47 45 41 40
61 62 61 60 57 58 59 59 60 60 59 57 56 53 50 50 47 46 45 45 45 46 46 45 45 45 47 46 42 42 41 40
57 57 58 57 57 58 58 59 60 59 58 56 55 53 53 54 50 47 46 45 44 46 48 46 47 48 47 46 43 44 41 39
59 59 60 59 58 58 59 59 60 59 58 57 55 56 54 53 50 47 47 47 47 50 48 48 46 48 47 46 43 41 40 39
60 58 59 59 58 59 59 60 61 58 58 55 53 53 52 51 49 49 48 49 49 46 47 47 48 47 46 45 43 41 40 39
54 56 57 58 58 59 58 60 58 55 53 52 52 51 52 51 50 48 48 47 49 48 48 48 47 47 46 44 42 41 39 38
53 55 57 58 58 57 56 54 52 49 50 49 48 48 50 50 50 49 50 49 50 49 48 47 46 46 44 41 41 40 39 38
53 54 53 53 54 53 53 51 50 49 49 48 48 49 49 49 50 51 49 50 49 49 47 46 46 45 43 41 40 41 39 37
52 52 52 53 52 52 52 51 50 48 49 50 49 48 49 49 50 51 49 48 46 45 46 46 45 44 43 43 40 40 38 37
52 51 51 52 52 52 50 49 48 48 49 48 47 48 51 50 48 47 46 47 46 44 46 45 44 44 44 43 41 39 37 37
51 51 51 52 51 50 50 48 47 48 48 47 47 49 47 46 46 46 45 45 45 46 45 44 43 43 43 41 40 38 36 35
52 52 51 51 51 50 49 48 48 48 46 46 47 46 45 45 45 44 44 44 43 43 42 41 40 43 41 40 38 35 34 34
46 46 47 48 49 49 46 46 46 45 46 46 44 44 44 43 43 44 43 41 41 40 39 40 40 41 40 40 39 34 33 33
41 40 42 42 43 44 44 45 43 43 42 42 44 44 43 43 42 41 40 40 39 39 39 40 39 39 38 38 37 34 32 32

GFSFLT1_sfc_temp_039.txt.gz
Temp
67 67 68 69 68 68 69 68 68 67 66 66 68 68 69 67 67 67 66 67 65 65 64 62 64 63 63 63 61 61 62 62
68 68 68 69 68 68 68 67 67 67 64 64 65 65 65 64 65 66 66 66 65 64 64 62 63 63 61 61 60 60 60 60
67 67 67 67 68 68 68 68 67 68 68 68 68 67 65 66 64 65 66 64 65 64 62 62 62 60 59 59 60 59 60 58
65 66 66 67 67 67 67 68 67 68 68 67 64 64 63 61 61 64 64 64 64 63 61 61 60 61 60 59 59 57 56 55
68 67 66 66 67 68 68 68 67 67 66 67 65 66 64 63 63 64 63 62 61 62 60 59 59 59 58 57 58 57 56 55
68 69 70 69 68 66 67 68 68 67 66 67 64 64 63 60 60 59 59 59 60 59 59 58 57 58 57 56 54 52 51 49
69 71 71 71 68 67 66 67 66 66 63 64 63 63 60 58 58 57 57 58 57 57 58 58 57 57 56 51 48 47 47 55
68 68 68 69 66 66 66 66 62 62 62 62 61 60 60 60 58 55 52 53 55 54 56 55 55 56 52 47 47 50 54 54
69 69 70 68 67 66 66 66 64 60 61 61 62 62 60 61 58 54 53 56 54 55 55 56 55 54 53 48 49 52 53 53
68 69 68 68 66 65 65 66 66 61 61 62 61 61 60 59 56 54 55 54 55 54 55 55 54 49 51 51 52 53 52 52
64 66 66 67 67 67 65 66 67 66 64 62 60 61 62 59 54 54 55 54 54 54 54 53 52 54 47 53 53 53 51 52
64 65 65 66 66 66 65 66 67 66 64 62 61 59 59 56 54 55 53 53 55 55 53 50 49 54 54 53 51 51 50 51
65 64 64 64 64 64 64 64 63 63 61 58 58 58 55 54 53 53 53 54 55 55 52 49 49 53 53 51 50 48 49 49
63 62 62 62 62 60 61 61 61 59 58 58 57 55 55 55 54 55 55 55 55 50 49 48 52 53 52 49 45 49 49 49
62 60 61 61 60 61 61 58 57 56 57 57 56 55 55 55 54 53 51 51 49 51 49 48 50 49 49 46 47 48 48 48
59 60 60 60 60 59 58 57 56 57 56 56 54 55 55 54 52 48 47 47 48 48 48 47 45 45 44 44 47 48 47 47
55 57 58 58 58 59 56 55 55 56 55 54 54 51 50 48 46 45 44 45 46 46 43 43 42 44 40 40 42 46 47 45
50 50 51 52 54 55 54 54 54 53 53 52 51 48 46 45 45 45 42 43 44 42 42 43 43 43 40 40 39 45 46 46
46 48 48 49 51 51 51 51 50 50 49 49 49 48 45 45 44 44 42 42 42 43 45 43 42 42 39 38 37 45 45 45

GFSFLT1_sfc_temp_042.txt.gz
Temp
70 75 76 76 77 76 74 74 73 72 74 75 77 77 79 78 77 77 75 75 73 75 75 72 74 73 71 72 70 71 73 73
74 75 77 77 76 75 75 73 74 75 72 73 75 74 77 75 75 75 73 76 74 74 74 72 72 72 71 69 69 67 69 70
75 75 76 75 76 75 75 75 75 75 77 77 77 77 77 77 76 74 74 74 74 73 72 71 71 70 68 67 67 67 70 69
75 74 76 76 75 75 76 77 77 77 77 78 78 78 76 74 71 70 72 72 73 73 71 71 70 70 68 67 67 66 65 65
79 77 77 76 77 78 77 78 78 78 78 77 74 74 73 74 72 72 73 71 72 72 71 70 68 70 67 67 67 66 61 57
79 79 80 80 78 77 77 77 77 77 76 76 74 73 77 77 73 71 70 69 69 70 69 68 67 68 66 65 63 61 56 53
81 83 82 81 80 78 76 76 76 76 74 72 72 72 73 68 69 68 68 67 67 65 66 66 67 67 64 64 63 57 53 57
81 81 82 82 80 77 76 76 75 71 68 65 66 68 70 66 67 67 65 64 61 61 63 63 65 63 63 62 55 56 54 59
82 82 82 82 81 79 75 73 71 71 68 62 66 67 64 64 68 67 65 60 60 59 60 62 62 62 59 55 52 51 58 57
81 82 83 82 81 79 76 75 73 73 69 64 65 66 65 65 67 68 63 59 58 58 59 59 59 57 54 51 53 54 58 59
77 79 80 80 81 79 77 77 77 76 71 67 65 67 66 66 65 64 60 60 60 59 60 59 57 55 53 48 49 58 58 59
76 77 78 78 78 78 76 76 77 77 74 72 66 67 67 65 64 64 62 61 57 56 57 58 54 52 52 52 55 56 55 51
79 77 76 76 75 76 75 76 76 77 76 74 70 66 64 61 60 60 59 57 55 57 60 56 54 57 55 52 52 54 50 52
77 75 75 75 74 73 73 73 73 74 73 71 68 64 59 57 56 55 54 54 55 57 56 53 54 54 52 51 49 47 48 53
76 74 74 74 72 72 72 70 69 67 68 67 65 64 63 63 60 58 56 55 56 50 50 51 50 51 51 49 47 46 47 50
70 73 73 73 71 69 69 67 67 67 66 66 63 63 63 62 60 60 59 59 55 50 50 46 49 49 47 49 49 44 46 51
67 69 69 68 68 68 65 65 64 66 64 63 62 61 59 57 55 54 49 48 48 46 47 45 46 51 41 40 40 42 47 50
63 63 64 65 65 66 64 63 63 63 61 60 59 57 54 52 50 49 45 49 44 45 46 52 48 48 40 40 39 46 50 51
60 61 61 63 63 62 62 62 61 59 58 57 56 55 52 52 51 50 47 47 46 48 49 47 50 49 39 39 38 47 49 51

GFSFLT1_sfc_temp_045.txt.gz
Temp
71 73 74 75 74 72 70 73 71 71 72 76 78 78 78 81 81 81 78 78 76 76 78 76 75 76 75 74 73 74 74 74
73 72 74 73 74 74 75 73 73 72 72 75 76 74 77 79 81 80 79 78 76 75 78 75 74 75 73 72 71 69 70 71
73 75 78 77 77 77 76 75 75 74 74 77 79 78 79 80 80 77 75 77 77 76 76 75 73 74 72 70 69 69 70 69
75 76 78 78 78 77 78 78 78 78 79 80 80 80 80 78 79 78 74 76 78 76 76 75 73 74 70 68 69 68 67 67
79 78 77 78 79 80 80 80 80 76 80 78 77 77 76 78 76 74 74 74 75 76 75 73 72 72 70 69 70 69 67 64
80 79 80 81 80 80 79 80 81 81 80 79 78 76 78 80 79 74 73 75 74 74 73 71 69 70 70 69 68 66 66 60
83 84 83 82 82 80 80 79 80 81 81 79 77 75 76 75 72 72 74 73 72 71 72 69 68 67 68 67 66 61 59 59
83 83 84 83 82 80 80 79 79 80 78 73 74 73 72 65 67 68 69 69 68 68 69 65 64 62 65 65 58 57 54 52
84 86 85 85 84 82 80 80 79 80 75 70 69 71 68 67 64 63 63 63 63 66 63 60 60 61 59 56 57 55 51 53
86 87 87 87 86 84 81 79 80 80 74 65 65 70 69 68 66 66 63 62 65 62 58 57 58 57 58 58 55 52 56 55
85 87 87 88 88 86 83 81 80 77 70 71 71 70 69 69 67 65 63 65 63 59 58 58 59 60 58 55 55 56 53 54
82 84 86 87 88 86 84 82 82 77 75 73 73 72 70 67 65 64 64 62 60 60 60 58 56 56 54 53 52 53 54 51
84 83 82 82 82 83 82 81 81 82 73 72 72 71 71 64 63 62 62 61 62 62 58 55 55 55 52 50 52 53 53 48
83 82 80 80 80 80 80 79 80 81 81 74 69 65 62 61 60 59 58 58 58 56 55 56 53 52 52 50 50 47 46 48
82 81 80 80 78 78 77 77 78 78 77 76 71 64 62 61 59 57 55 54 54 55 54 50 52 50 50 49 46 46 49 50
80 80 80 78 76 76 75 73 72 73 72 72 66 66 66 64 62 60 58 57 55 52 51 52 49 47 47 46 49 52 49 47
76 78 77 75 73 73 71 70 69 70 69 66 66 65 64 62 61 59 58 57 55 52 47 47 46 50 44 42 44 49 46 45
73 73 73 73 71 70 68 68 68 67 65 64 62 61 59 57 57 56 54 53 53 49 49 50 50 53 41 40 39 44 43 44
69 69 69 70 71 69 68 68 66 64 63 61 60 58 56 57 56 55 54 53 52 51 52 53 52 48 40 40 38 44 48 50

GFSFLT1_sfc_temp_048.txt.gz
Temp
67 67 65 64 63 63 62 63 62 63 65 67 70 70 71 70 72 73 72 71 71 68 67 67 65 66 65 65 63 63 62 61
68 69 67 66 64 65 65 64 64 64 64 65 66 67 69 70 71 72 72 72 71 68 67 67 65 65 65 64 62 61 59 60
68 67 69 67 66 66 66 67 66 66 66 68 70 70 70 72 72 73 72 70 71 69 67 67 65 65 64 62 61 58 58 58
67 68 68 69 67 67 68 69 69 70 69 71 72 72 70 69 70 69 70 70 70 70 68 66 65 65 62 61 60 59 56 56
69 69 69 69 71 71 72 72 72 72 72 70 70 70 69 69 68 70 70 69 68 70 70 67 65 63 62 60 62 59 57 53
71 72 74 74 74 73 73 74 74 74 74 72 70 69 69 70 70 68 68 67 68 68 68 66 63 63 62 61 60 59 56 54
77 76 76 76 77 75 74 74 75 75 73 72 68 67 69 67 66 65 65 66 66 65 67 64 63 62 61 61 60 58 53 54
78 77 76 76 75 74 74 74 74 75 72 72 70 68 68 67 66 63 61 60 60 62 64 62 60 61 59 59 56 54 52 50
79 79 77 77 75 75 74 74 73 75 73 70 70 70 67 66 66 62 61 61 61 61 60 60 57 58 56 54 52 51 49 48
80 81 79 78 77 75 74 75 75 75 73 70 67 66 66 65 63 63 61 61 61 60 59 56 56 55 54 52 50 48 48 49
81 82 81 81 80 78 75 75 75 76 75 69 69 66 65 66 65 63 63 61 60 58 56 56 55 54 54 50 48 48 50 50
79 80 82 82 82 80 77 77 77 75 74 69 67 67 67 66 63 63 63 60 58 56 56 55 55 54 52 49 49 50 50 47
79 79 80 79 79 81 78 77 77 71 70 69 68 68 67 62 61 60 59 57 57 57 56 55 54 52 51 49 48 50 48 45
80 79 78 78 77 77 78 77 76 70 74 69 68 65 62 60 58 57 57 56 56 55 54 53 52 50 49 48 48 47 45 45
79 78 77 77 76 76 75 74 75 73 70 67 61 59 58 57 55 53 52 52 51 51 51 50 49 48 47 48 46 45 45 45
78 78 77 76 74 74 74 70 69 69 68 64 59 59 59 57 56 55 53 53 52 50 48 48 47 47 47 46 47 45 45 45
77 78 78 74 74 72 70 68 67 68 64 63 62 61 60 58 56 55 54 52 50 49 48 45 43 48 42 43 44 46 46 44
74 75 74 72 71 69 67 66 67 65 63 63 61 59 56 54 54 53 51 48 48 45 45 45 46 47 42 41 40 43 43 43
72 72 70 68 68 67 66 66 63 62 60 59 58 56 54 54 53 51 48 48 46 46 46 48 48 45 40 40 39 41 41 41

GFSFLT1_sfc_temp_051.txt.gz
Temp
56 56 56 59 59 58 58 58 59 60 60 63 62 62 61 62 64 65 66 67 67 65 64 62 62 62 61 60 60 59 58 58
58 58 57 56 56 56 57 57 59 60 59 61 61 62 63 62 63 66 66 67 66 65 62 63 61 61 61 60 59 58 56 55
60 58 58 58 58 58 58 59 60 60 60 65 64 64 63 66 66 65 67 67 67 64 62 61 60 60 60 59 58 55 55 54
60 58 59 59 58 59 60 61 62 63 62 63 65 65 63 61 61 65 67 68 66 65 63 62 60 59 58 57 56 56 53 53
63 61 60 60 60 62 63 63 63 65 65 63 63 63 63 65 62 63 64 66 65 66 65 63 60 60 58 57 58 57 57 54
63 63 63 63 63 63 64 65 65 66 65 65 63 62 66 64 65 61 64 62 63 63 62 61 61 62 60 58 58 58 56 54
65 66 67 66 66 64 64 65 65 66 66 66 66 64 63 63 61 63 62 61 61 63 63 61 61 59 59 58 57 57 53 53
64 65 65 67 67 66 66 67 66 67 67 67 66 63 64 65 60 62 59 60 58 59 60 59 59 58 58 57 55 53 52 51
66 67 68 69 69 69 68 68 68 69 68 67 68 67 64 63 62 59 61 61 60 60 59 59 58 57 56 54 52 51 50 49
69 70 70 71 71 71 69 70 70 70 69 67 67 66 66 64 60 60 60 58 57 57 58 56 57 55 54 52 51 49 49 47
72 72 71 72 73 73 71 71 71 72 68 67 68 68 61 61 60 58 59 58 57 56 56 55 55 54 52 51 49 48 48 47
66 70 72 74 74 72 70 69 67 69 69 69 67 64 60 61 60 60 59 58 56 55 54 54 53 52 51 49 49 48 48 46
69 69 68 68 72 67 67 67 65 67 67 66 65 62 61 60 59 59 59 57 55 54 54 54 53 52 50 49 47 49 47 45
67 68 69 68 67 69 67 65 65 67 68 66 62 61 62 60 58 57 56 54 55 54 54 53 51 50 49 49 48 46 45 45
66 65 67 68 67 66 67 67 67 67 67 62 58 58 56 56 55 54 53 54 53 52 52 51 50 49 48 47 46 45 45 45
67 65 65 65 65 63 63 62 63 63 61 58 56 55 55 55 53 52 52 51 51 50 49 47 47 47 47 45 46 45 44 44
70 69 66 66 65 62 62 60 59 60 57 56 57 57 56 54 53 51 51 49 48 47 46 45 45 47 41 42 44 43 45 44
67 67 66 64 63 62 59 59 59 58 57 58 57 55 53 53 53 51 48 44 42 41 41 42 42 43 41 41 40 42 42 42
64 63 60 61 61 61 59 59 57 56 54 54 54 52 50 50 49 47 43 42 41 41 41 42 42 43 40 40 39 41 38 38

GFSFLT1_sfc_temp_057.txt.gz
Temp
53 57 58 57 57 58 57 57 57 59 58 58 59 60 61 62 62 63 63 63 63 62 61 60 61 59 58 57 57 56 56 55
52 57 58 58 57 57 58 56 57 57 61 57 58 58 60 61 62 64 63 63 62 61 60 59 59 58 58 58 56 55 54 53
52 56 56 56 56 57 58 58 58 58 60 63 62 60 60 61 62 62 63 62 62 61 60 59 59 58 57 56 55 53 54 52
51 53 53 56 55 56 57 58 59 60 61 60 59 60 60 59 60 60 61 62 62 61 60 59 58 57 58 56 55 54 53 51
52 54 51 53 56 57 57 56 57 58 60 59 59 60 60 57 58 59 60 60 60 61 60 59 58 58 57 57 57 54 53 52
52 52 52 54 56 52 55 56 57 58 57 58 56 54 56 57 58 57 57 58 59 60 60 59 58 58 58 57 55 53 53 53
55 55 55 53 54 53 53 55 56 58 57 56 56 55 54 55 55 55 56 56 58 59 60 60 59 58 57 57 56 55 54 54
56 54 53 54 53 53 54 55 55 57 57 58 58 57 56 56 57 56 55 54 55 58 59 58 60 60 59 59 57 57 54 53
57 57 56 56 56 55 55 56 56 58 57 58 58 59 59 58 58 58 56 57 58 58 58 59 60 57 56 56 56 55 53 52
59 59 59 58 58 57 56 57 57 58 59 58 58 59 60 59 59 59 59 57 58 57 59 59 57 56 56 54 52 51 51 51
60 61 60 60 60 59 58 59 59 60 59 60 60 60 60 62 61 60 59 59 58 56 56 56 55 55 54 52 49 49 50 49
61 62 63 62 62 60 59 59 60 60 61 62 61 61 61 61 60 61 59 58 59 58 57 56 55 53 51 49 48 49 49 48
64 63 63 63 62 61 60 60 60 61 62 63 62 62 62 61 61 61 60 59 59 59 59 56 54 53 52 51 49 50 48 47
63 63 62 63 63 63 62 62 61 62 63 63 62 62 61 61 61 60 61 61 59 57 56 54 53 52 51 51 50 49 48 47
60 61 63 64 64 64 64 63 63 63 63 63 62 62 61 61 61 61 61 62 58 55 54 53 52 51 51 50 49 47 46 47
59 60 62 63 63 65 66 65 64 64 63 63 63 62 60 61 60 61 60 57 56 54 53 51 50 49 48 47 47 46 45 44
62 62 62 61 62 64 64 64 64 64 63 63 62 60 59 59 60 57 55 53 53 51 49 48 47 47 42 42 45 45 45 44
61 62 63 64 64 62 60 62 60 60 62 60 58 58 58 57 54 52 51 51 49 47 47 46 46 46 40 41 41 44 43 42
60 60 61 62 57 56 54 55 57 58 58 57 57 56 54 52 51 49 47 47 46 46 45 46 45 43 39 39 39 42 40 38

GFSFLT1_sfc_temp_060.txt.gz
Temp
54 56 57 57 57 58 57 57 57 58 59 58 58 60 60 62 62 62 62 63 62 61 59 59 59 58 57 57 56 56 56 56
53 55 57 56 57 57 57 56 56 57 59 58 57 57 59 60 61 62 63 62 62 61 60 60 59 58 58 58 56 55 54 54
54 56 56 56 55 57 57 58 57 57 59 63 59 57 59 61 61 62 63 62 61 60 60 59 59 58 57 56 56 53 54 52
53 54 55 55 55 56 57 58 58 58 58 58 59 59 57 59 59 60 61 62 61 61 60 59 58 58 57 55 55 55 53 50
53 54 53 55 56 57 58 59 59 60 59 58 59 61 57 59 59 61 61 61 59 61 59 58 58 57 56 56 56 55 53 51
51 52 54 56 57 57 57 56 59 60 58 59 56 53 57 57 59 59 59 58 58 58 59 58 57 57 57 56 55 53 53 51
53 53 52 51 52 53 56 53 55 57 57 57 56 55 54 54 54 54 55 55 56 57 58 57 57 57 57 57 55 55 55 55
52 51 50 50 50 51 52 54 53 55 55 56 56 55 54 54 53 53 53 53 53 55 56 56 56 57 58 58 57 57 56 55
53 53 52 52 52 52 52 52 53 55 54 54 55 56 56 56 54 52 52 53 54 55 56 57 57 57 58 58 58 57 56 55
55 55 55 54 53 53 52 53 54 55 55 54 54 55 56 56 54 53 55 54 55 55 56 56 56 56 56 57 56 55 53 52
56 57 56 56 56 55 54 55 55 55 56 56 56 56 56 57 56 56 57 58 55 55 55 56 56 55 55 54 52 50 51 48
57 58 59 59 58 56 55 55 55 55 56 57 57 56 56 56 57 58 57 58 58 58 58 57 57 55 55 54 52 50 50 49
58 58 58 58 58 57 55 55 56 57 57 58 57 58 58 57 57 58 57 58 59 59 60 59 58 56 53 52 51 51 50 48
56 56 58 59 58 59 58 57 57 58 59 58 57 57 58 57 58 58 58 59 60 58 58 58 57 55 54 53 52 51 50 49
56 56 59 60 60 60 59 59 59 59 59 59 58 58 58 59 59 59 59 59 60 60 58 59 57 53 52 52 50 49 49 49
56 57 58 59 59 60 61 61 60 60 59 59 59 59 60 60 59 59 59 59 60 61 59 55 53 51 50 49 49 48 47 46
60 58 58 59 60 61 61 61 60 60 59 59 60 60 60 60 59 58 58 59 59 59 55 54 50 50 43 43 46 46 46 45
59 60 60 61 60 61 61 61 60 60 59 60 60 60 59 59 59 58 58 58 55 53 51 50 49 47 41 42 41 46 44 43
60 61 59 59 59 57 57 56 57 58 59 59 59 59 58 58 57 55 53 52 52 49 49 48 47 43 40 39 39 42 41 41

GFSFLT1_sfc_temp_063.txt.gz
Temp
58 59 60 60 59 59 59 60 60 61 59 61 60 60 64 63 64 65 68 67 66 67 67 66 66 65 65 67 65 66 66 66
58 60 60 58 58 58 58 57 58 60 58 58 58 58 64 65 64 64 67 67 67 67 66 66 66 66 65 64 64 64 63 64
57 59 59 57 58 58 58 58 58 59 60 62 62 62 64 64 65 65 67 65 67 68 67 66 66 65 64 64 64 63 66 64
55 56 57 58 58 58 59 59 58 58 60 59 58 59 59 62 63 66 66 66 67 67 67 64 64 65 63 64 64 63 63 62
58 58 57 58 60 62 61 60 59 58 60 59 60 62 59 63 63 67 64 65 66 66 64 63 64 64 63 63 63 64 64 63
59 59 59 60 61 61 61 60 62 60 60 61 60 60 63 60 60 63 64 64 65 65 63 65 64 66 65 65 64 63 64 64
61 61 60 59 60 61 61 60 62 61 60 61 60 60 59 59 58 59 60 63 62 64 65 64 65 65 65 65 65 64 63 63
59 57 57 57 57 60 60 61 61 62 60 61 61 63 61 62 60 61 62 63 63 63 65 64 65 66 66 67 65 64 63 61
60 59 58 57 56 59 60 59 60 61 61 62 63 64 64 64 63 64 64 65 67 66 66 66 67 67 66 66 65 65 63 57
62 61 60 60 58 58 58 59 59 61 61 62 62 63 64 64 64 64 64 64 64 65 66 66 67 66 66 66 65 64 61 59
63 62 61 61 61 60 59 60 60 61 61 62 62 62 63 64 64 63 64 65 64 65 65 66 66 66 66 65 64 62 60 59
63 64 64 63 63 61 59 60 60 61 62 62 62 62 62 62 62 63 64 64 65 65 66 66 66 66 64 62 59 58 57 58
66 65 64 63 63 62 61 60 60 61 62 62 61 61 61 60 60 62 63 64 65 65 65 64 60 60 60 57 57 55 53 53
65 64 64 64 64 63 62 61 62 62 62 62 61 61 61 60 61 62 63 63 64 65 65 64 64 62 60 58 57 55 54 55
67 65 65 66 65 64 63 62 63 63 63 62 62 61 61 62 63 62 63 63 63 64 65 64 63 63 60 57 55 53 52 52
66 66 67 66 65 64 65 64 64 64 63 63 62 63 63 63 63 63 63 63 64 63 63 64 64 62 59 57 56 55 53 50
68 66 67 65 65 66 65 65 64 64 63 62 64 64 64 63 63 63 63 63 64 64 62 62 59 56 47 47 51 52 50 48
67 66 65 67 68 66 66 66 66 64 64 64 64 64 63 63 64 64 63 62 62 61 60 59 57 55 44 45 44 49 48 46
65 67 67 68 69 68 67 68 65 64 64 64 64 64 63 64 64 63 63 61 59 58 57 54 54 50 43 41 40 46 44 44

GFSFLT1_sfc_temp_066.txt.gz
Temp
69 66 64 63 60 62 62 62 59 63 64 62 62 63 63 64 63 72 75 76 74 75 75 72 73 74 75 75 73 74 74 74
70 67 63 62 59 58 61 59 60 64 63 60 60 60 63 63 64 66 71 72 71 73 73 71 72 73 74 73 72 70 70 72
67 66 65 63 60 61 59 61 64 64 64 64 69 65 66 65 66 65 68 71 68 68 71 71 73 73 71 71 71 69 71 70
66 66 65 62 60 60 61 60 62 66 65 64 64 63 63 64 64 65 67 68 66 67 69 72 72 73 71 70 70 71 68 69
71 68 66 66 62 62 64 62 60 62 63 61 64 61 60 70 69 66 66 68 66 68 70 72 69 68 68 69 71 70 67 68
71 70 70 70 68 64 66 65 62 61 61 61 60 61 64 66 66 68 64 65 67 68 68 69 67 68 69 68 67 69 71 69
74 73 72 71 69 68 67 67 65 61 60 61 61 64 65 66 62 63 63 62 65 64 65 66 67 67 69 68 71 69 71 70
74 72 71 71 68 67 65 67 66 64 60 62 63 63 62 61 62 62 62 62 62 63 68 69 68 69 69 67 69 72 71 70
74 74 73 71 69 69 67 68 69 67 65 65 68 66 65 67 64 64 62 64 67 65 66 68 68 71 73 73 72 73 72 71
75 75 73 72 69 69 68 69 71 69 68 66 65 68 68 71 70 69 68 66 69 68 69 66 67 72 73 73 72 72 72 70
76 76 73 73 72 70 70 70 71 71 70 69 69 70 70 71 72 71 72 73 73 73 72 72 73 73 73 72 73 73 71 71
76 76 76 74 73 71 70 70 71 70 70 70 69 70 71 71 71 71 72 72 73 72 72 72 72 72 73 72 71 71 70 67
79 77 76 74 73 72 71 69 70 70 71 71 69 69 70 69 69 71 71 71 72 73 73 72 73 73 73 72 71 69 66 60
78 78 76 75 74 73 72 70 70 71 71 70 69 68 69 69 69 69 70 70 71 72 72 72 72 72 72 71 69 64 58 57
79 77 77 77 76 75 73 72 71 72 71 71 70 69 69 69 69 69 69 70 69 70 71 71 71 71 71 71 69 61 60 57
78 78 79 79 77 76 75 75 73 72 71 71 70 70 70 70 69 69 69 69 69 70 70 70 71 69 70 70 69 66 63 59
79 80 81 80 79 77 75 75 74 73 71 71 72 71 71 69 69 69 69 69 69 69 69 69 69 69 54 47 56 65 61 59
77 78 79 80 81 79 78 77 76 73 71 72 72 72 71 70 70 69 69 68 68 67 68 69 68 69 46 45 45 58 57 54
75 78 78 79 78 81 80 81 77 74 73 72 72 71 71 71 70 69 69 69 67 66 66 67 67 67 45 46 44 53 50 48

GFSFLT1_sfc_temp_069.txt.gz
Temp
79 75 74 67 66 64 62 62 61 61 62 62 61 61 61 62 62 66 71 73 72 73 74 73 75 74 75 76 75 77 77 76
79 75 73 66 61 61 61 59 59 61 61 61 59 59 60 60 62 66 71 75 74 73 73 71 70 71 71 73 74 72 73 75
76 74 71 66 62 61 62 62 62 61 66 66 65 62 63 64 64 64 74 76 76 75 73 72 72 72 72 72 71 69 71 72
76 73 71 68 64 64 62 63 64 64 66 67 65 64 63 62 63 62 67 72 73 73 74 71 70 74 72 71 71 71 65 70
78 75 73 70 65 64 65 64 65 66 67 68 65 66 62 63 64 65 66 68 70 72 72 69 69 74 73 72 73 72 66 62
78 76 75 75 68 64 64 63 64 66 67 68 64 62 70 65 65 64 64 66 68 70 66 65 65 70 70 70 69 68 66 64
80 79 78 76 73 67 65 62 62 64 66 65 64 64 67 63 63 66 63 64 69 69 65 64 66 66 68 67 65 66 66 68
80 78 77 76 74 71 68 66 62 62 62 64 68 66 63 64 65 66 64 62 64 69 65 64 65 67 68 68 63 67 68 68
80 80 78 77 74 73 72 70 66 64 61 62 67 68 68 68 70 70 66 65 63 67 67 66 70 69 70 70 70 68 70 65
81 81 79 78 76 73 72 72 73 68 64 63 64 68 67 68 68 68 69 70 67 66 67 69 71 71 71 72 72 70 67 66
82 82 79 79 78 75 73 73 74 74 69 66 65 67 69 70 70 69 69 69 69 69 68 69 69 68 70 70 71 72 70 70
82 82 82 80 79 77 74 74 75 75 74 72 68 69 69 70 71 72 72 71 71 70 70 70 70 70 71 71 71 72 71 70
83 83 82 80 79 77 76 75 74 75 76 74 72 71 71 71 71 73 74 73 74 73 74 73 73 73 73 72 71 73 71 70
83 82 81 80 79 78 77 75 75 76 76 75 73 72 72 72 72 73 74 73 74 74 75 73 74 73 73 73 73 72 71 71
83 83 82 82 80 79 79 77 76 76 76 75 73 73 73 73 73 73 73 73 73 73 73 73 73 73 74 73 73 71 71 71
82 83 83 83 81 80 80 79 77 76 75 75 74 74 74 73 73 73 72 72 73 73 73 72 73 73 73 72 73 71 70 68
81 82 84 85 84 83 82 80 79 77 76 75 76 75 75 73 73 72 72 71 72 72 71 71 70 72 58 51 60 70 68 68
77 79 82 83 85 86 83 82 81 79 76 76 76 76 75 73 73 72 71 70 70 70 70 70 70 70 52 49 47 66 66 62
74 77 79 81 82 83 83 86 83 80 78 77 77 76 75 75 73 72 71 71 69 68 69 70 70 70 50 46 43 63 66 65

GFSFLT1_sfc_temp_075.txt.gz
Temp
68 65 64 61 61 61 59 59 60 60 60 61 61 60 61 61 61 62 63 65 65 66 64 64 64 64 61 67 65 62 64 64
68 63 62 59 60 60 60 59 59 60 59 59 59 58 59 60 61 62 63 64 65 65 65 62 62 62 62 64 62 62 60 62
65 60 60 58 60 61 60 59 60 60 61 61 61 59 59 61 62 62 64 64 65 65 65 63 62 61 61 60 62 59 60 61
64 60 58 57 58 60 60 60 60 61 62 62 61 61 59 58 60 61 63 65 65 66 66 64 63 63 62 61 61 61 59 60
65 61 57 57 58 61 61 61 61 62 62 61 59 58 56 59 60 62 63 64 64 65 64 62 63 64 63 60 61 61 59 57
64 62 59 59 59 60 59 61 61 62 62 62 60 58 60 61 61 61 61 62 64 65 64 62 60 60 60 60 60 60 59 57
66 65 62 59 60 62 61 60 61 62 62 61 60 60 59 59 60 60 60 61 61 64 62 61 60 59 60 61 60 60 59 59
66 63 61 59 59 61 61 61 59 62 61 61 61 61 59 60 60 60 59 59 58 59 59 60 60 61 60 61 61 60 59 58
66 65 63 60 59 60 62 61 61 62 62 62 63 63 61 60 60 60 61 61 61 62 62 62 61 60 63 60 59 60 60 58
67 67 65 61 59 59 59 60 63 62 62 62 62 62 63 62 62 62 61 62 63 62 61 62 62 62 61 60 61 60 61 60
68 68 66 63 61 60 60 60 60 60 62 62 63 63 63 64 63 62 62 64 63 62 62 62 62 62 62 61 60 60 59 60
69 69 68 66 64 62 60 60 60 59 60 61 62 63 63 64 63 62 62 63 63 62 63 62 63 62 63 62 62 61 60 61
69 70 69 66 66 64 62 62 61 61 60 60 60 62 63 63 63 63 62 62 64 62 62 62 62 62 62 61 62 64 61 61
67 69 69 67 67 65 65 64 64 63 61 60 59 59 62 63 63 64 63 63 62 63 63 61 62 62 62 62 62 62 62 61
67 65 68 69 68 67 66 65 66 66 63 62 59 59 60 62 64 63 64 62 63 62 63 62 61 62 62 63 63 62 62 62
65 66 66 67 66 67 68 67 66 67 66 64 61 61 61 61 61 62 62 62 63 63 63 63 63 63 63 62 63 62 61 60
63 65 64 62 63 62 64 66 67 67 66 66 66 64 62 61 61 62 62 62 63 63 62 62 62 63 55 50 57 62 62 61
61 60 60 59 59 61 61 62 63 63 66 67 67 65 64 63 63 63 62 62 62 62 62 63 62 63 50 48 47 62 61 61
58 56 54 53 53 58 59 57 57 57 59 60 63 62 65 65 64 64 63 63 62 62 62 62 63 64 49 47 45 56 61 61

GFSFLT1_sfc_temp_078.txt.gz
Temp
63 61 60 59 58 57 57 58 60 60 61 61 62 62 62 63 63 63 64 65 65 65 63 62 63 63 60 61 61 60 61 59
62 61 59 58 57 57 57 57 59 59 60 59 59 59 60 61 62 63 64 65 65 65 65 62 63 62 62 62 61 61 56 58
60 58 59 59 58 57 58 58 59 60 60 60 60 60 60 61 61 62 64 64 65 65 65 63 63 61 59 58 60 57 57 60
57 57 57 58 58 57 59 59 59 59 60 61 60 59 58 58 59 60 61 63 65 65 64 64 63 63 60 57 58 62 57 57
59 57 56 57 57 58 59 60 60 60 60 60 59 58 56 58 60 61 61 62 63 63 63 63 62 63 60 60 60 58 57 58
58 57 56 57 57 57 60 60 60 61 61 59 60 58 60 59 60 59 60 61 61 63 62 62 62 62 60 60 60 58 58 56
61 59 58 55 56 57 60 60 60 61 61 60 59 59 59 58 58 58 59 61 61 61 61 62 62 62 61 61 61 60 58 58
58 55 55 55 55 56 60 60 59 61 60 60 60 58 59 59 59 59 59 60 59 61 61 60 61 61 62 62 61 58 57 56
59 58 57 56 56 57 58 59 59 60 60 60 61 61 60 59 60 59 60 61 61 62 62 61 61 60 60 60 59 58 58 58
61 59 58 57 57 57 58 60 61 61 60 60 60 61 61 58 60 60 59 60 62 60 61 62 61 61 62 59 59 58 58 58
62 60 59 59 59 59 60 62 62 62 61 61 61 62 62 60 59 58 60 60 61 61 60 59 60 61 61 61 60 59 59 59
63 62 60 60 59 58 58 59 61 62 62 62 62 62 62 62 60 59 60 60 60 60 61 60 61 61 61 60 61 61 60 60
64 63 61 59 58 57 57 58 59 59 60 60 61 62 62 61 62 61 61 60 61 61 61 61 61 62 62 61 61 61 58 59
62 63 62 60 59 58 58 58 59 60 60 59 58 59 61 61 62 62 62 61 60 61 61 60 61 61 61 60 60 60 60 59
60 59 60 61 61 60 59 59 60 60 59 58 58 58 59 60 62 62 62 62 62 61 61 61 61 62 61 61 60 59 59 60
57 56 56 57 58 59 62 61 61 61 60 59 58 59 60 60 61 61 63 62 62 62 61 61 61 61 61 60 61 60 59 59
53 54 53 53 56 57 58 59 59 62 60 59 59 59 59 58 59 60 61 61 62 62 61 61 59 61 52 49 55 59 60 59
50 49 49 49 51 53 52 53 55 56 59 60 59 60 59 59 59 59 59 59 60 59 60 60 60 60 49 47 46 59 59 58
46 46 45 46 49 50 50 51 51 51 51 51 51 51 53 55 60 59 58 59 58 58 59 60 60 61 47 46 45 56 60 60

GFSFLT1_sfc_temp_081.txt.gz
Temp
65 59 58 57 57 56 57 57 59 60 61 62 62 63 63 63 64 63 62 61 62 63 62 59 61 61 58 59 61 57 59 59
59 58 58 56 55 55 57 58 59 60 60 59 60 60 61 63 63 63 62 62 63 63 62 59 60 60 60 62 59 58 55 58
57 58 59 58 56 55 56 58 59 60 60 60 60 60 60 62 62 62 63 62 64 64 63 62 61 60 59 59 58 55 54 56
55 58 59 59 58 57 58 57 58 59 60 60 59 59 59 59 60 60 61 62 63 64 64 64 62 63 60 60 59 60 55 54
57 57 58 58 58 59 60 56 59 60 61 59 59 58 57 58 59 60 60 62 62 63 64 62 63 63 61 59 61 62 57 56
57 56 59 60 59 58 59 57 58 61 60 60 59 57 59 58 59 58 59 59 60 61 61 61 61 62 61 60 58 57 56 55
59 57 60 58 58 58 56 56 59 59 60 60 60 58 57 57 57 57 57 58 59 59 60 61 61 61 61 60 60 58 57 57
56 54 56 56 56 57 56 56 57 59 58 57 60 61 59 56 58 58 57 57 58 59 59 60 61 61 60 60 59 59 58 56
56 55 55 56 57 57 57 57 58 59 59 59 58 61 61 59 57 59 59 60 60 62 60 61 61 61 61 59 58 58 58 57
56 56 56 55 56 57 56 57 58 60 60 60 59 58 59 58 59 60 60 60 60 62 61 60 60 60 61 60 59 59 59 59
57 57 56 56 56 57 56 57 58 59 61 60 59 58 58 59 56 57 56 56 58 57 59 59 60 60 60 60 60 60 59 60
58 58 57 57 57 56 56 56 57 58 61 61 60 60 60 60 57 55 56 56 57 57 58 59 59 60 61 60 61 60 59 60
59 58 57 56 56 56 56 57 58 59 60 61 60 61 61 60 58 56 55 56 56 57 58 59 60 59 59 60 59 60 57 58
57 56 56 55 55 56 57 56 56 57 58 58 57 59 60 60 60 60 59 57 57 57 58 58 58 58 58 58 59 60 59 59
54 56 56 56 56 56 57 57 57 57 57 56 56 56 57 58 61 61 61 61 60 58 58 59 59 59 59 59 59 58 59 58
51 51 53 55 55 56 58 57 57 58 57 57 57 56 57 57 57 58 59 61 61 61 60 60 59 59 60 59 60 59 58 57
48 49 50 50 51 52 53 53 54 57 57 56 57 57 57 57 57 57 57 57 58 59 60 60 59 60 51 47 53 59 58 57
45 45 47 47 48 49 48 50 52 52 53 53 54 56 57 56 57 57 57 56 57 57 58 59 59 60 48 47 46 58 58 57
42 43 44 45 47 47 47 48 48 48 47 47 48 50 51 53 54 57 57 57 57 57 58 59 59 59 43 44 44 54 58 58

GFSFLT1_sfc_temp_084.txt.gz
Temp
66 61 57 57 57 57 58 55 57 61 62 63 63 61 61 62 62 63 63 63 64 64 62 60 61 60 60 60 59 58 59 58
61 56 57 56 55 57 58 56 56 59 59 60 61 60 61 61 63 63 63 63 63 62 61 58 61 61 60 60 60 57 55 56
55 55 56 57 56 57 58 59 58 60 58 61 61 60 61 62 63 62 61 60 61 62 60 60 60 59 59 60 60 54 54 58
55 55 56 57 56 56 57 58 60 60 60 60 59 60 59 60 61 60 60 59 60 62 60 61 60 61 59 61 59 58 57 55
57 56 56 58 57 58 58 58 60 59 59 59 59 58 57 58 60 61 59 59 60 61 62 61 61 61 61 60 62 60 57 55
57 56 57 60 59 58 59 57 58 60 59 60 59 58 58 59 59 59 59 59 60 61 61 61 61 61 60 59 57 57 57 56
58 55 59 60 59 59 58 57 59 60 59 59 59 57 57 58 57 57 58 59 59 59 60 61 60 59 59 59 58 58 56 57
55 54 56 58 56 57 57 57 58 59 57 59 59 58 57 58 58 57 58 58 58 59 60 59 59 59 59 60 59 58 57 56
57 55 56 58 57 57 57 57 58 59 58 58 59 60 59 59 59 59 58 59 59 59 59 60 60 59 59 60 60 59 57 57
58 55 57 58 57 57 57 57 58 59 58 58 58 59 59 58 58 59 59 59 59 59 59 59 59 60 60 58 59 59 58 57
55 54 56 57 58 57 57 56 56 59 58 58 58 58 59 60 59 55 56 58 60 59 59 59 59 60 60 60 59 59 59 58
55 55 55 57 58 58 56 55 55 56 59 57 59 58 57 56 55 54 55 55 57 59 59 59 59 59 59 59 59 59 58 58
56 54 55 55 56 57 56 54 54 55 56 57 59 58 58 58 58 56 54 55 55 56 58 59 59 59 59 59 58 59 57 57
52 54 55 56 56 56 56 54 54 55 56 58 58 58 58 57 56 56 54 54 55 55 56 57 57 58 58 59 59 58 57 57
53 53 53 55 57 57 58 56 55 55 55 55 54 55 57 58 59 57 56 56 54 54 56 56 56 56 57 58 58 58 58 58
50 51 52 54 55 56 56 56 56 56 55 54 54 54 55 55 55 56 57 57 57 56 56 56 56 56 57 56 57 56 56 56
46 47 48 49 50 50 51 52 54 57 55 55 58 55 55 54 54 55 55 55 55 55 55 57 57 58 50 47 53 58 58 58
42 43 45 45 46 47 47 49 51 51 51 51 51 54 56 55 56 56 56 56 56 55 56 57 57 57 45 46 45 58 59 58
39 41 42 43 45 45 45 46 45 45 45 45 46 47 48 49 50 49 52 55 56 56 56 57 58 41 37 37 37 49 57 58

GFSFLT1_sfc_temp_087.txt.gz
Temp
76 74 74 70 69 69 68 66 64 67 66 65 64 62 62 62 63 64 65 65 66 64 64 60 62 63 66 68 66 68 68 68
75 71 69 67 66 66 66 64 63 64 63 62 61 60 61 61 63 64 64 64 64 64 62 61 62 64 66 66 66 65 66 68
72 68 65 65 65 65 64 66 64 64 66 65 64 62 62 63 63 65 64 63 63 62 60 61 62 65 65 64 65 65 66 66
72 66 64 64 63 63 62 66 65 64 65 64 63 63 62 62 61 62 63 63 63 61 61 62 65 64 64 65 66 66 61 64
71 67 64 63 63 62 64 65 66 66 66 65 63 62 60 59 62 60 60 61 61 60 62 63 63 63 64 65 66 65 64 62
71 66 65 65 62 60 61 64 64 64 62 63 62 61 61 62 60 59 58 58 59 60 62 62 62 63 63 63 61 63 66 65
68 65 64 65 61 60 60 59 63 62 61 62 63 62 61 59 59 58 57 57 58 60 60 60 62 63 62 63 63 62 62 64
63 61 62 63 59 59 59 59 62 62 61 62 62 62 63 61 58 58 57 56 57 59 60 60 60 62 60 61 63 62 60 61
63 63 63 62 60 59 59 59 62 60 61 61 62 62 61 61 60 59 59 58 58 59 59 59 59 60 59 59 61 62 61 62
64 63 63 62 61 58 59 60 61 60 60 60 61 62 61 60 61 60 59 60 59 58 58 58 58 58 60 60 59 60 60 62
63 64 62 62 63 59 59 60 61 60 60 61 61 60 61 61 60 59 59 59 60 59 59 59 58 58 59 60 60 61 62 61
60 62 63 63 60 59 58 59 60 59 60 62 60 60 60 61 61 62 60 59 59 59 59 59 59 59 59 59 59 60 59 59
59 58 58 59 57 57 57 58 59 60 61 63 61 60 59 59 60 61 61 63 64 62 60 59 58 58 59 59 59 61 59 59
56 56 56 56 56 57 57 59 61 61 62 62 60 60 59 59 59 59 59 61 63 63 63 62 62 59 58 59 59 60 59 59
52 55 55 56 57 57 57 60 63 63 63 64 61 60 61 60 60 59 59 60 62 63 64 64 64 64 64 61 60 60 60 59
45 47 50 53 55 57 59 60 62 63 62 63 63 63 64 64 64 63 63 62 62 62 63 64 64 64 64 64 62 60 60 60
42 43 45 46 48 50 50 53 59 62 60 58 60 61 62 62 62 62 62 62 63 62 62 62 62 60 49 47 55 60 60 61
39 40 41 43 44 46 46 47 49 49 49 49 50 53 53 53 57 58 59 59 60 59 60 60 59 53 38 40 41 60 61 60
36 37 39 40 42 42 42 44 44 43 43 43 45 46 46 47 48 48 50 49 46 48 45 49 42 39 37 37 37 50 54 57

GFSFLT1_sfc_temp_090.txt.gz
Temp
86 88 89 89 88 84 81 79 72 70 69 70 72 69 68 66 64 64 65 65 66 66 65 63 63 62 62 64 68 72 75 75
86 86 87 85 83 80 80 77 69 69 69 68 69 66 66 64 64 64 65 65 65 65 64 62 62 61 62 66 69 71 73 74
82 84 85 81 81 79 79 78 69 71 76 77 74 67 67 66 64 64 65 65 66 64 63 62 62 61 61 68 69 70 71 71
80 82 84 81 78 77 78 78 72 75 77 77 72 67 65 64 62 62 63 65 65 63 62 62 62 62 61 67 70 71 68 70
79 81 84 81 79 78 77 77 76 75 75 75 71 71 64 64 62 63 63 63 63 62 62 62 62 63 64 68 72 71 70 67
78 81 83 84 79 75 74 76 76 75 74 75 71 69 70 72 68 62 62 62 62 61 61 62 61 63 66 70 70 70 71 71
79 82 83 81 77 68 70 74 75 75 74 73 72 70 68 68 62 60 59 58 60 61 61 61 62 63 66 68 68 70 71 71
75 76 77 76 70 63 66 72 73 72 71 71 69 69 70 68 61 58 57 57 56 57 59 59 59 63 66 66 68 69 69 70
74 74 74 74 66 61 62 67 71 70 69 68 68 71 69 68 61 59 57 58 57 58 58 59 60 62 65 66 67 67 67 67
73 74 74 74 67 61 61 67 72 70 68 65 68 68 67 64 62 60 58 59 58 59 59 60 61 62 63 64 64 62 64 66
69 73 73 73 70 62 62 68 71 68 68 65 68 67 66 66 64 60 59 59 59 58 57 58 59 59 60 60 59 60 60 61
64 68 70 71 68 62 60 66 66 66 65 66 67 65 66 64 63 61 59 59 59 58 57 58 58 57 58 57 58 60 61 61
59 61 65 64 61 60 60 62 63 66 64 65 64 63 66 64 64 63 59 60 60 61 59 59 59 58 57 57 59 60 59 59
50 57 59 59 59 58 59 60 62 66 63 65 63 63 65 65 66 67 67 64 61 61 59 59 59 58 57 57 58 58 60 63
48 47 53 57 58 58 58 60 63 63 63 65 64 64 63 63 64 65 66 68 66 66 64 62 61 60 60 59 58 60 60 64
43 43 44 47 55 57 59 64 66 66 65 64 63 63 64 63 63 63 62 62 65 68 67 66 66 64 64 61 62 60 60 64
40 41 42 43 45 50 52 58 64 66 66 63 66 66 67 67 65 65 64 62 63 63 64 65 66 66 39 41 56 65 64 64
36 38 39 40 41 44 46 47 49 50 50 49 50 52 52 52 58 62 63 64 65 62 62 62 50 46 37 38 38 59 62 61
34 35 38 37 39 41 42 43 44 44 43 44 45 46 46 48 48 48 46 45 44 44 43 42 40 39 36 37 37 53 58 43

GFSFLT1_sfc_temp_093.txt.gz
Temp
89 90 92 94 94 92 89 87 78 72 72 72 71 72 72 69 68 70 69 69 69 70 67 65 67 63 63 64 62 63 66 71
90 90 91 91 91 90 88 85 79 72 69 67 68 67 67 68 67 68 68 68 67 67 66 65 65 62 63 64 63 62 63 76
87 89 89 88 88 87 85 85 83 73 70 73 77 73 73 71 69 67 67 66 66 65 66 64 63 62 62 62 62 61 62 70
84 86 87 87 86 85 85 85 84 74 75 78 77 73 69 66 67 67 67 67 66 65 65 63 62 62 62 62 63 62 63 67
82 84 85 86 87 85 85 85 83 73 78 80 75 68 65 68 68 68 64 65 65 65 63 63 62 62 61 62 64 63 67 66
80 83 85 87 88 85 83 84 83 77 79 81 76 74 76 74 70 68 66 63 64 63 63 62 61 61 62 62 63 66 68 68
81 83 85 86 89 84 81 81 81 79 79 79 77 75 76 74 70 67 64 62 62 61 62 62 62 62 62 62 64 66 68 70
78 80 83 85 85 80 78 78 79 79 77 77 77 75 75 72 71 67 62 60 60 61 61 61 61 62 62 63 63 67 69 70
77 79 80 82 81 74 72 78 79 78 76 76 76 76 72 74 69 65 62 58 59 61 61 61 61 62 62 63 65 68 68 68
74 77 79 79 75 66 65 76 78 76 75 75 74 72 71 70 67 63 60 59 58 58 59 60 61 61 62 62 64 64 66 66
63 73 78 79 71 64 63 72 74 74 73 73 71 69 71 70 65 60 59 58 58 58 58 58 59 60 61 61 63 64 66 66
55 63 75 77 72 65 63 68 72 71 72 69 68 68 68 67 67 61 59 58 58 58 58 58 58 58 59 60 63 62 63 62
52 52 62 67 65 64 62 67 68 68 70 67 67 68 67 66 65 61 60 58 58 58 57 57 56 56 57 58 58 58 57 57
48 49 49 58 60 60 61 63 64 67 66 65 67 67 65 64 64 63 60 59 58 58 58 57 57 56 56 57 56 56 57 58
44 44 46 48 54 59 60 61 64 66 66 65 66 68 67 67 68 66 62 63 60 60 60 60 59 58 58 57 56 56 57 59
41 41 42 44 45 48 59 61 62 64 63 65 65 68 68 68 67 67 68 66 64 63 63 62 61 60 59 57 58 57 57 59
39 39 39 40 41 43 47 52 59 68 64 62 65 68 65 65 66 65 64 65 66 65 65 65 63 49 38 40 51 59 59 61
37 36 37 37 38 40 41 46 50 50 49 50 52 54 54 54 59 58 57 59 60 56 55 49 44 42 37 39 39 56 58 54
34 34 35 36 37 37 40 42 43 43 43 44 46 48 47 47 48 46 44 43 43 43 42 43 41 39 37 38 38 52 43 40

GFSFLT1_sfc_temp_096.txt.gz
Temp
85 85 87 89 87 84 81 78 74 73 74 71 71 71 72 73 71 70 71 69 69 68 67 66 66 64 64 63 62 62 62 62
84 83 83 81 80 80 80 77 73 72 71 68 67 67 68 68 69 70 70 68 68 68 66 65 65 64 63 63 62 61 60 62
82 83 80 78 79 79 78 79 73 72 72 71 70 68 67 67 66 67 67 67 67 67 66 65 63 63 62 62 62 60 61 62
79 80 78 77 77 77 78 80 75 74 72 71 71 70 69 66 65 64 65 66 66 66 66 65 64 64 62 62 62 61 59 60
78 78 78 77 77 77 78 79 80 74 72 70 69 69 65 66 65 66 65 66 66 65 65 64 63 63 62 62 62 62 61 59
75 77 78 81 78 75 76 78 80 73 72 72 71 69 68 67 66 65 65 65 65 64 64 64 62 62 62 62 61 61 61 60
76 78 78 79 78 76 75 77 78 73 72 72 73 68 69 68 66 64 63 63 63 63 63 63 62 62 62 62 62 62 61 61
70 74 77 78 76 75 75 76 77 73 71 73 73 71 70 70 66 64 63 61 61 62 62 61 61 62 62 62 62 62 62 61
65 64 72 76 76 74 74 75 76 75 73 73 72 69 70 69 66 65 62 61 61 62 61 62 62 61 62 62 61 61 62 61
60 62 65 76 71 69 70 73 75 75 72 68 69 69 69 67 65 64 62 61 61 60 61 61 61 61 61 61 61 61 61 62
55 58 58 66 68 66 67 69 71 71 68 67 67 66 67 65 64 62 60 59 59 58 58 60 60 60 61 61 61 61 61 61
51 52 55 56 66 64 64 66 66 66 67 66 64 65 65 65 64 61 59 58 58 57 57 57 59 60 60 60 60 61 60 60
49 47 49 49 52 64 63 64 62 64 65 65 64 63 64 64 62 60 58 58 58 58 58 57 57 58 60 60 59 60 60 59
46 44 44 45 46 51 62 60 61 63 64 63 63 62 63 63 62 60 58 58 58 58 57 56 55 55 55 57 57 56 56 56
43 41 41 42 43 45 47 58 61 62 63 63 62 62 62 62 62 60 59 58 57 57 57 56 56 55 55 55 54 54 55 55
40 38 39 39 40 41 44 48 59 61 61 62 62 63 63 64 63 61 61 60 59 59 58 58 57 56 56 55 55 55 54 55
37 37 37 37 37 38 41 42 47 60 58 59 61 63 64 63 62 63 61 60 60 60 59 59 56 45 39 41 52 55 55 55
33 34 34 35 35 36 37 39 43 47 49 50 51 53 52 51 52 51 49 51 49 47 46 44 41 41 37 39 43 55 55 52
31 33 33 34 35 35 36 37 39 40 41 43 45 46 45 44 44 42 41 41 41 40 40 40 39 38 37 39 41 44 40 38

GFSFLT1_sfc_temp_099.txt.gz
Temp
79 79 80 76 81 79 75 72 72 71 70 68 67 68 69 67 65 66 67 67 66 65 64 64 64 63 63 63 63 63 63 62
74 73 74 76 77 79 70 71 71 71 69 66 66 66 68 68 68 66 70 68 67 66 65 64 64 63 63 63 62 61 60 62
72 75 71 71 71 71 68 73 70 71 70 70 67 67 67 67 66 67 69 67 67 66 65 64 64 63 63 62 62 60 61 61
70 73 73 69 70 71 70 71 70 70 69 68 65 64 65 64 64 65 65 67 67 66 65 64 64 64 62 62 62 61 59 60
68 69 67 67 69 70 71 70 69 69 68 67 65 64 63 65 66 66 64 65 65 65 65 64 64 63 62 62 62 61 61 59
63 64 69 70 69 68 71 70 69 69 68 67 66 64 65 66 64 63 64 64 64 64 64 64 63 63 63 62 62 61 61 61
62 63 63 64 68 66 67 69 70 68 67 66 66 65 63 63 62 62 62 62 63 63 64 64 64 63 62 62 62 61 61 61
57 58 58 59 60 65 66 69 68 67 66 66 66 65 64 62 61 61 60 61 61 61 62 62 62 63 63 62 62 62 61 60
53 54 55 56 61 64 67 65 66 66 66 65 65 66 67 67 63 61 61 62 62 63 62 62 63 62 62 62 62 62 61 61
50 51 52 52 59 59 59 63 64 65 64 64 64 66 66 64 63 62 60 58 60 61 62 62 61 61 62 62 61 61 61 61
47 48 49 50 51 57 58 60 61 64 64 65 65 64 64 63 62 59 58 57 59 58 60 61 61 61 61 61 60 61 61 61
45 45 47 47 48 49 54 59 59 60 65 64 63 62 62 62 61 59 58 58 57 57 58 58 59 60 60 60 60 60 59 60
43 43 43 44 44 46 48 52 60 60 62 63 61 61 62 61 59 57 58 57 57 57 57 57 58 59 60 60 59 59 59 59
40 40 40 40 41 43 44 46 48 60 61 61 60 61 61 60 59 58 58 57 57 57 57 56 56 57 59 59 60 59 60 59
37 36 37 38 39 40 42 43 46 51 60 60 59 59 60 60 60 58 58 58 57 57 57 56 56 55 56 58 58 58 58 58
35 34 34 35 36 38 40 41 43 46 58 60 59 60 61 60 59 58 58 58 58 58 57 56 55 55 53 55 56 56 56 55
32 33 34 33 34 35 38 39 40 43 47 53 58 59 61 60 59 59 58 58 57 57 57 56 48 45 39 42 51 54 54 54
30 31 32 33 33 35 35 37 39 39 40 43 48 49 49 49 50 48 48 46 45 44 43 43 41 41 38 40 42 54 54 53
29 30 31 32 33 34 36 37 36 36 36 37 40 42 42 42 42 40 39 39 38 38 38 38 38 38 38 39 39 41 38 37

GFSFLT1_sfc_temp_102.txt.gz
Temp
72 74 77 76 78 74 72 71 70 71 70 70 67 66 66 67 67 67 66 67 66 65 64 64 64 64 63 63 63 63 61 61
67 69 70 71 71 73 71 69 70 70 68 67 66 66 66 65 66 67 67 65 65 65 64 64 65 64 63 63 63 61 61 62
66 67 67 66 70 70 68 70 69 70 69 69 69 69 66 66 66 67 68 67 67 66 65 64 64 63 63 62 62 61 61 62
66 67 65 63 63 66 67 72 70 70 71 69 64 65 63 62 65 66 67 67 66 66 65 65 64 64 62 62 62 61 59 61
63 60 58 58 61 62 68 73 70 71 70 68 66 66 64 66 66 66 66 66 66 65 65 64 64 64 63 62 63 62 61 59
55 55 56 58 58 59 64 71 70 71 68 68 66 65 66 63 63 64 64 64 65 64 65 64 64 64 63 63 62 61 62 61
53 55 56 55 58 60 61 67 68 68 68 68 66 64 63 62 63 63 63 63 63 64 64 64 64 64 63 63 63 62 61 61
48 49 50 52 52 57 60 66 67 67 67 66 65 64 63 63 62 62 62 62 62 62 63 62 63 63 63 63 62 62 61 61
46 48 49 49 50 51 57 62 66 65 64 64 64 64 63 63 62 61 61 62 61 63 63 63 63 63 63 63 62 62 62 61
44 46 46 46 47 48 50 59 61 63 63 63 62 62 63 63 61 62 62 61 61 62 62 61 62 62 62 62 61 61 61 61
42 43 43 45 45 46 49 51 54 60 61 62 63 62 61 61 61 61 60 59 60 60 61 61 61 61 62 62 61 61 61 61
39 40 41 42 44 44 46 48 49 53 59 59 60 60 61 60 60 59 58 58 57 58 59 59 60 60 61 60 60 61 60 60
36 38 39 39 40 42 44 46 45 48 56 58 59 61 61 60 59 58 58 56 57 58 56 57 58 58 60 59 59 60 60 59
34 35 36 37 38 39 41 43 43 46 50 58 59 60 60 59 58 58 57 57 57 57 57 57 57 57 58 59 60 59 59 59
33 33 34 35 36 37 38 40 42 44 49 59 59 59 59 59 59 58 57 57 57 57 57 56 56 55 56 58 59 59 59 59
31 31 32 33 34 35 37 39 40 43 44 47 52 59 59 59 58 58 57 58 57 57 57 56 55 53 49 50 58 58 58 58
30 31 32 32 33 33 36 37 38 40 40 41 44 49 58 58 58 58 56 54 55 54 54 53 48 46 38 40 50 56 57 56
28 29 30 31 32 33 33 35 38 37 37 38 39 41 44 46 47 45 44 43 43 41 42 42 41 40 38 40 42 51 47 49
27 28 29 31 32 32 33 33 34 35 35 35 36 37 38 39 39 38 37 37 36 36 36 37 38 38 37 38 38 40 38 38

GFSFLT1_sfc_temp_105.txt.gz
Temp
69 68 67 67 69 69 71 72 70 70 69 67 67 66 67 67 67 67 67 67 66 65 63 64 64 64 63 63 62 62 62 62
65 65 63 62 64 66 68 70 70 69 68 67 66 66 66 66 67 67 66 67 66 65 65 64 64 63 63 63 62 61 60 61
63 64 62 62 62 62 64 69 69 68 70 70 69 67 66 67 67 66 67 66 65 66 65 64 64 63 63 63 62 61 61 61
61 63 59 58 58 57 61 67 70 69 71 70 64 63 63 64 64 65 66 66 66 65 65 65 64 64 63 63 63 62 60 61
52 52 53 52 53 54 57 65 68 69 70 68 66 66 65 67 66 66 67 67 66 66 65 65 64 64 63 63 63 62 61 59
49 50 51 51 53 54 55 59 68 70 69 69 67 66 67 64 65 65 65 65 65 66 65 64 64 64 63 63 62 62 62 61
49 50 52 52 52 52 56 60 67 69 68 68 66 66 64 63 64 64 64 64 64 65 65 65 64 64 63 63 63 62 62 61
44 45 46 48 49 50 54 61 64 67 67 68 67 66 64 63 64 65 63 63 63 63 64 63 63 64 63 63 63 62 62 61
41 43 44 45 46 47 49 52 55 67 67 67 67 64 63 63 63 64 63 63 64 64 63 63 64 63 63 63 63 62 62 61
36 40 42 43 43 44 47 49 51 54 66 66 65 62 61 61 61 62 62 62 60 62 63 62 62 62 62 62 61 61 61 61
35 37 39 41 42 43 44 47 48 51 58 63 62 61 61 60 60 59 59 59 60 60 60 61 61 61 62 62 62 62 61 61
35 36 38 39 41 41 43 45 46 47 50 57 60 60 59 59 59 58 59 59 59 60 60 60 60 60 61 61 61 61 60 60
35 35 36 37 37 39 41 43 44 46 48 52 59 59 59 59 58 58 58 58 58 58 58 58 58 58 59 60 60 61 60 60
33 33 33 34 35 37 38 40 42 45 47 52 58 58 58 58 58 58 58 57 57 56 57 56 56 57 57 58 58 59 59 59
31 31 32 33 34 35 36 38 40 42 44 45 47 55 58 58 58 58 57 58 55 56 57 56 56 55 55 56 57 58 59 60
29 29 31 32 32 33 34 36 38 40 41 41 42 48 57 58 57 57 57 56 57 57 56 56 55 53 48 44 49 57 58 58
28 29 30 31 31 31 33 33 35 37 36 38 40 42 44 45 52 56 53 51 51 50 49 49 47 46 38 39 43 53 56 58
26 27 28 30 30 31 30 32 34 34 34 36 37 38 38 38 40 41 42 42 41 40 41 41 40 38 37 39 41 47 46 44
26 27 28 29 31 31 31 32 31 31 31 32 34 36 35 35 35 35 35 36 36 36 36 37 37 37 36 38 38 40 38 38

GFSFLT1_sfc_temp_108.txt.gz
Temp
65 66 62 63 66 63 63 66 68 67 68 67 66 66 66 68 68 69 68 68 67 67 65 65 65 63 63 62 61 62 62 62
62 61 60 59 58 60 62 63 68 67 67 66 66 66 66 66 67 67 68 68 67 67 65 64 64 63 63 63 63 61 60 61
53 56 57 55 58 57 59 61 65 68 70 70 69 68 67 68 67 67 67 68 67 67 65 64 64 63 63 63 63 61 61 61
48 50 50 50 50 51 55 58 64 68 70 70 67 66 65 64 65 66 66 67 67 67 66 65 64 64 63 63 63 62 60 60
48 48 50 50 50 50 52 55 59 67 68 68 68 66 65 67 67 67 67 66 66 67 66 65 64 64 63 63 63 63 62 59
46 47 48 50 52 50 50 52 55 65 67 69 67 66 68 67 66 66 66 66 66 66 66 65 64 64 64 63 63 63 62 62
44 46 47 46 48 49 49 54 57 62 66 68 66 66 65 63 65 64 65 65 65 65 65 65 65 64 64 63 63 63 62 62
39 39 40 43 44 46 48 51 54 61 64 66 66 66 65 64 65 65 64 64 64 64 64 64 64 64 64 64 63 63 62 61
37 36 39 40 42 43 45 48 50 53 63 67 66 64 63 63 64 65 65 64 64 64 64 65 65 64 64 63 63 63 63 62
35 36 36 38 40 42 43 45 47 50 53 63 64 64 63 62 63 64 65 63 62 62 63 64 64 63 63 62 62 62 62 62
32 34 34 36 38 40 43 44 45 48 50 53 63 62 62 61 61 61 62 62 61 62 62 62 62 62 62 62 61 62 61 61
30 32 34 33 37 38 40 42 43 45 48 51 59 61 61 61 61 61 61 60 60 60 61 60 60 60 60 60 61 61 60 61
30 30 33 33 35 37 37 41 42 43 47 51 59 59 60 60 59 59 59 59 59 59 59 59 59 59 59 60 60 60 60 60
30 31 32 32 33 34 36 37 39 43 45 46 49 52 59 58 58 58 58 58 58 58 58 57 57 57 57 57 57 57 58 59
29 29 30 32 32 33 34 35 37 39 42 43 43 45 52 58 58 58 58 58 57 56 57 56 56 56 55 54 54 54 56 58
27 27 28 30 30 31 32 33 35 37 39 38 39 41 43 46 53 56 56 56 56 57 56 56 54 51 45 44 48 50 53 55
27 27 28 29 29 29 31 32 33 34 35 36 37 38 38 39 40 42 43 43 45 47 47 47 44 45 37 39 40 51 51 48
25 25 27 28 28 28 28 30 32 32 31 32 34 34 33 36 37 36 36 36 37 37 38 40 38 38 37 39 38 46 44 42
24 25 26 27 30 29 29 30 30 30 30 30 31 32 32 34 34 33 34 34 33 34 34 35 36 36 36 37 37 40 38 37

GFSFLT1_sfc_temp_111.txt.gz
Temp
70 69 71 71 72 71 71 72 73 74 74 72 71 70 72 74 74 74 73 72 71 71 69 67 67 66 65 65 66 68 70 70
68 63 62 62 64 65 68 69 69 73 73 69 68 66 69 71 72 72 72 71 70 69 70 67 67 66 65 64 65 64 64 65
59 58 57 57 58 59 61 63 66 70 76 75 74 72 70 71 69 69 70 70 70 68 69 67 66 66 65 64 64 62 63 64
52 54 54 55 56 56 58 60 62 64 71 76 75 73 71 66 66 67 68 69 70 68 68 67 66 66 65 65 64 64 61 62
48 49 50 52 54 55 56 57 59 62 65 73 72 72 69 70 70 70 68 68 69 69 68 67 66 66 66 65 65 65 65 61
42 43 45 47 49 49 51 54 57 61 64 69 73 72 74 75 72 70 68 67 68 69 68 67 66 66 66 65 64 65 65 64
40 42 43 43 46 46 47 49 53 59 63 66 71 72 72 73 71 68 67 67 66 66 67 66 66 66 66 65 65 65 64 64
36 37 38 40 41 42 44 47 48 53 57 65 71 72 72 72 71 71 68 66 65 65 66 65 66 66 66 66 65 64 64 63
34 36 37 36 38 40 41 45 45 49 52 58 70 69 69 71 72 72 70 69 67 67 66 66 66 65 66 66 66 64 64 63
32 34 35 36 36 37 40 42 45 47 49 52 65 68 67 68 70 71 70 70 67 66 67 65 65 65 65 66 65 63 63 63
31 31 32 35 36 36 39 42 43 45 47 51 54 67 66 66 68 69 70 69 67 65 65 65 64 64 65 64 64 64 63 63
29 30 31 32 33 34 36 38 41 43 45 48 54 62 64 65 65 68 69 66 65 65 66 67 64 62 63 63 63 62 61 62
29 29 30 31 31 32 34 35 37 41 45 47 49 53 61 61 61 61 62 62 64 65 64 62 61 61 62 61 60 61 61 62
29 28 29 29 31 32 32 34 35 38 43 44 45 46 51 59 59 59 60 60 60 60 61 61 60 60 59 59 60 59 60 60
28 28 29 31 31 30 29 33 34 36 40 40 42 42 45 48 56 57 58 58 58 58 59 58 58 56 54 54 56 56 57 58
26 26 27 29 29 30 31 31 33 33 36 37 38 40 41 43 43 45 47 46 46 48 52 50 49 45 42 42 49 53 55 57
26 27 27 28 29 28 29 30 31 33 33 34 36 38 38 37 38 39 40 40 40 40 40 40 39 41 37 38 40 48 53 52
25 25 27 27 28 29 27 28 30 31 30 31 32 34 34 33 36 36 35 34 36 34 36 36 35 36 36 37 37 45 44 42
25 26 26 27 30 30 31 31 29 28 29 30 30 31 32 32 33 32 32 33 32 33 33 34 33 34 35 36 37 39 37 36

GFSFLT1_sfc_temp_114.txt.gz
Temp
77 78 77 76 77 76 76 78 77 78 80 81 83 81 82 83 84 85 83 81 80 79 82 77 73 70 71 73 74 76 76 74
69 69 70 70 70 70 71 71 72 75 78 78 79 77 79 81 83 83 83 82 80 79 79 77 70 69 70 71 70 70 71 74
61 62 64 64 64 66 66 67 69 71 76 79 81 81 80 80 83 83 82 80 80 79 78 74 70 69 68 69 68 66 67 69
56 57 58 59 60 61 62 64 66 67 69 74 79 81 81 79 78 77 80 80 79 78 76 72 69 70 66 67 69 67 64 65
55 54 54 54 55 57 58 60 62 64 67 69 71 78 77 79 77 76 78 78 77 77 74 72 70 69 67 67 69 69 67 63
52 52 52 54 55 54 54 56 57 60 63 65 69 71 81 82 80 77 76 73 72 72 72 72 69 70 68 67 67 68 68 68
51 52 51 52 54 52 51 51 53 54 55 60 64 68 74 80 80 77 77 72 68 69 69 70 70 69 68 67 68 68 68 68
45 46 46 47 46 46 45 45 45 48 50 54 58 65 71 77 79 79 76 69 67 67 68 68 68 69 69 67 66 67 67 66
41 41 42 43 42 42 43 41 41 44 47 50 54 63 73 78 80 81 79 71 70 69 68 68 68 69 68 68 66 66 66 66
38 39 40 41 37 39 38 37 39 42 45 48 51 61 71 77 78 78 77 73 70 69 68 67 67 68 67 67 65 65 65 66
35 35 35 38 35 36 37 35 37 40 43 47 50 56 63 76 71 70 72 74 74 72 69 68 66 66 66 65 65 65 65 65
31 31 33 34 34 33 33 34 35 38 43 47 49 54 69 74 69 69 73 72 72 70 70 67 65 65 65 65 65 65 64 66
31 30 30 31 31 31 31 32 34 38 42 45 46 48 52 66 67 69 69 69 69 68 67 64 64 64 65 64 63 63 64 63
32 30 28 29 30 30 29 32 33 37 40 43 44 44 46 49 58 61 62 61 62 62 62 62 63 63 63 62 61 62 62 62
31 30 28 29 30 29 28 31 33 35 38 38 40 41 42 44 46 48 49 53 57 55 53 48 47 46 47 51 55 57 59 60
29 28 28 29 29 29 30 30 31 32 35 35 37 39 40 40 41 42 44 44 45 46 43 42 42 41 40 43 50 55 56 60
29 29 29 29 30 30 30 29 30 32 31 32 35 35 36 37 36 38 38 39 38 38 38 38 38 40 38 38 43 51 51 49
27 28 28 30 30 31 31 31 31 30 30 30 31 32 32 33 34 33 33 34 35 35 35 35 35 36 36 38 39 42 40 39
28 29 29 29 33 33 36 36 34 30 29 30 31 31 31 32 32 32 32 32 31 33 32 32 33 34 35 36 36 37 36 35

GFSFLT1_sfc_temp_117.txt.gz
Temp
76 76 76 76 76 76 76 77 77 78 79 80 84 84 84 82 84 85 82 83 80 80 82 79 77 80 79 80 76 75 75 76
72 71 71 71 71 70 71 71 73 74 77 78 81 81 83 83 82 84 83 84 83 80 82 81 77 74 74 75 77 75 73 75
67 67 67 66 66 66 67 67 69 71 74 76 79 82 85 85 85 83 84 84 83 82 81 83 78 75 70 71 72 72 75 76
63 63 63 63 62 63 63 64 65 67 68 71 74 77 78 82 81 81 83 83 83 81 81 82 81 76 73 70 69 69 67 71
60 60 60 60 60 62 62 61 61 63 65 65 67 70 74 82 82 81 81 81 82 82 81 81 80 76 73 71 71 69 68 65
56 56 56 58 59 58 58 57 58 60 61 61 62 65 71 76 78 80 79 80 80 81 80 79 77 75 74 72 69 68 69 68
54 54 53 53 55 54 53 53 55 57 57 57 56 58 63 69 73 77 76 77 78 78 78 76 74 73 73 73 70 69 68 68
49 48 47 47 47 48 48 48 49 51 52 53 53 54 58 63 67 72 76 75 75 75 74 71 73 73 72 72 68 68 68 67
44 42 42 42 42 43 42 42 44 47 47 48 49 51 54 61 67 72 71 79 78 76 74 71 70 73 71 70 69 68 67 67
40 40 39 38 38 38 39 38 40 42 41 42 44 48 51 55 65 72 76 77 80 76 74 69 69 69 70 68 67 66 67 67
37 36 36 36 36 37 38 36 37 38 39 41 44 46 51 55 64 71 75 78 79 74 72 68 67 67 67 67 66 67 66 66
34 33 34 33 35 34 35 34 35 36 38 40 42 47 50 54 64 71 75 76 76 75 72 67 67 66 66 66 66 65 65 65
35 33 32 31 31 32 31 32 33 34 36 39 44 45 47 50 58 71 74 73 74 74 73 71 69 65 65 64 64 64 64 64
36 33 32 31 32 31 31 31 31 32 36 38 41 41 43 43 45 49 51 65 66 61 63 58 59 61 62 63 63 64 64 64
33 32 32 33 32 31 31 31 31 32 34 36 38 38 39 40 42 42 45 46 46 46 44 44 44 44 46 51 59 60 60 60
31 31 31 33 33 33 33 31 31 31 32 33 35 37 38 38 38 38 39 40 40 42 44 43 42 41 42 43 53 56 56 57
29 31 32 31 32 33 34 32 31 32 32 31 33 34 35 36 35 35 36 36 36 36 38 38 39 40 40 40 46 48 47 45
29 30 30 31 33 35 35 34 33 31 31 31 32 32 32 32 33 33 32 32 34 33 33 34 33 35 37 37 38 39 38 36
28 29 30 31 35 35 37 38 36 32 32 31 32 32 32 32 32 32 31 31 31 31 31 32 31 33 34 34 34 34 33 33

GFSFLT1_sfc_temp_120.txt.gz
Temp
70 69 69 69 68 67 67 68 67 67 69 70 72 73 76 76 77 79 77 76 75 75 75 74 74 73 72 75 72 70 71 70
69 67 66 65 65 64 64 63 64 65 66 66 68 69 74 76 78 78 77 77 75 74 75 74 73 73 72 73 72 69 69 69
65 65 64 62 62 61 61 63 62 62 64 65 65 65 68 70 76 77 78 76 76 75 74 74 73 72 72 70 72 69 69 69
59 60 59 58 57 58 59 60 60 60 60 62 64 66 67 68 70 74 77 77 76 76 74 74 75 73 71 71 70 70 67 68
57 56 55 54 55 55 56 56 56 58 58 57 57 58 59 63 66 71 76 77 77 77 75 75 75 74 72 70 71 71 68 66
53 52 52 52 52 50 50 51 52 52 54 55 54 54 57 61 63 65 68 72 75 76 74 74 74 73 72 70 69 69 70 69
50 50 49 48 48 46 46 46 47 48 49 50 51 51 52 53 56 59 63 66 71 74 75 73 74 72 71 70 68 68 68 69
45 43 42 42 42 42 43 43 42 44 45 46 47 48 49 50 52 55 59 62 65 71 72 72 73 72 72 70 68 68 68 68
41 40 40 39 39 39 39 39 38 40 41 43 44 45 46 48 50 53 57 61 65 69 71 72 73 72 72 70 70 68 68 67
38 39 38 37 37 37 37 36 36 37 38 39 41 43 44 46 48 52 54 58 65 67 69 70 71 70 70 70 68 67 67 67
37 36 35 36 36 36 36 36 34 34 36 38 39 42 44 46 48 49 52 55 61 67 66 69 68 68 67 66 67 66 66 65
34 33 34 35 35 34 34 34 33 33 35 38 39 43 45 47 49 51 52 55 59 65 66 63 61 65 66 66 66 65 65 65
33 32 32 32 32 33 33 32 32 32 34 38 39 41 42 43 44 47 53 57 61 65 67 66 64 66 66 66 65 64 64 63
32 31 31 31 32 32 32 32 32 32 33 35 37 38 38 38 40 42 44 45 46 47 47 49 50 52 63 64 65 64 63 63
30 30 30 31 32 32 32 32 32 32 32 33 34 35 36 37 39 38 39 41 39 42 45 44 45 45 47 50 63 62 62 62
28 29 29 31 32 32 33 32 32 32 32 32 32 33 35 36 36 37 37 36 35 37 38 40 41 42 44 47 48 48 50 49
28 29 30 30 32 31 33 32 31 32 31 31 32 32 33 34 34 34 34 34 34 36 35 35 35 38 39 41 40 39 39 39
27 29 29 30 32 32 33 34 33 31 31 31 31 32 32 32 33 33 32 32 33 33 33 34 34 34 34 36 38 37 37 35
26 27 28 29 32 31 34 34 32 32 31 31 31 31 30 31 32 32 32 32 31 31 30 31 32 32 34 33 33 32 31 31

GFSFLT1_sfc_temp_123.txt.gz
Temp
61 59 59 59 58 59 59 60 60 60 60 61 62 63 62 63 68 69 72 75 75 74 69 68 70 67 68 71 70 69 69 68
58 57 55 55 55 55 56 56 57 57 57 56 56 56 60 60 61 66 70 73 74 71 72 67 68 70 69 68 69 67 66 67
55 53 52 51 51 51 51 51 52 53 54 55 56 56 58 60 63 63 65 69 72 72 69 71 70 70 68 68 69 67 67 67
49 49 47 47 46 46 47 47 48 49 51 52 53 55 55 55 58 60 63 67 71 71 72 71 71 69 69 70 69 69 66 66
47 45 44 43 43 44 44 45 44 47 48 46 45 46 48 52 53 57 58 61 65 69 73 72 72 71 69 69 70 69 67 65
42 42 41 42 42 41 41 42 43 44 43 44 42 43 48 50 51 51 54 57 61 65 67 71 70 69 70 69 70 67 68 68
39 40 40 39 39 39 38 39 40 41 41 41 40 40 44 46 48 47 49 52 56 61 64 66 71 70 69 70 69 69 67 66
36 37 36 36 35 36 37 38 38 39 38 38 39 41 42 43 44 46 47 48 51 56 61 63 66 70 70 70 67 67 65 64
35 35 34 34 35 35 36 36 36 37 36 36 38 40 41 42 44 45 46 48 50 53 56 60 65 67 69 70 68 65 62 62
33 33 33 33 34 34 35 35 35 36 35 36 37 39 40 41 43 45 46 48 51 51 54 57 61 65 67 68 68 67 65 64
31 31 31 33 33 35 35 35 34 34 35 36 38 40 42 44 45 45 46 48 50 50 51 53 58 63 66 65 67 68 67 64
29 30 31 32 33 33 34 33 33 33 34 35 37 39 41 42 43 45 46 48 49 51 52 53 57 61 62 60 62 65 65 64
28 29 30 31 31 32 32 32 32 32 34 35 35 37 39 40 39 41 43 44 49 52 54 54 58 56 57 57 58 62 58 63
30 30 29 29 31 31 32 31 31 32 33 33 34 35 35 36 37 38 39 40 41 43 44 43 44 45 47 50 57 60 63 64
28 28 28 29 30 30 31 30 31 32 32 32 32 33 34 34 36 36 36 37 37 37 38 39 39 39 42 46 53 61 63 62
26 26 26 27 28 29 31 30 30 31 31 30 31 32 34 34 34 34 35 35 35 36 35 35 37 37 37 39 43 44 44 45
26 27 27 27 28 27 29 30 29 30 29 28 30 31 32 32 33 32 32 32 32 32 33 33 33 33 35 35 35 34 37 38
25 25 25 25 26 28 27 28 30 29 28 29 28 29 29 30 32 32 30 30 30 30 30 31 31 32 33 33 34 32 32 33
24 24 25 25 27 27 28 29 29 28 27 27 28 26 27 28 29 29 30 29 28 28 28 29 31 32 33 33 33 31 31 31

GFSFLT1_sfc_temp_126.txt.gz
Temp
52 50 51 50 49 50 50 50 49 51 52 53 54 54 56 56 57 58 62 62 65 68 69 67 67 68 67 68 68 68 68 67
49 48 47 46 45 45 46 45 46 47 47 46 48 49 52 54 56 58 59 62 62 63 68 66 67 68 68 68 67 66 66 67
45 44 43 42 42 42 43 43 43 44 46 46 47 47 50 51 54 55 57 58 59 60 61 67 67 67 67 66 66 66 66 65
40 40 39 40 39 39 41 41 41 43 43 43 44 45 46 47 49 51 54 55 55 57 59 62 66 65 63 67 67 66 65 65
39 38 37 37 37 38 39 39 40 42 41 40 39 38 38 42 44 48 50 52 53 55 58 60 61 65 65 67 68 67 68 65
36 36 37 37 37 36 37 38 39 40 40 39 38 37 39 41 42 44 47 49 50 52 55 56 59 62 66 67 67 66 68 67
36 36 36 35 36 36 36 37 37 38 38 38 36 35 36 37 39 40 42 45 47 50 52 55 59 61 62 65 68 68 67 68
32 32 32 33 33 35 38 38 36 37 38 37 36 36 36 36 38 40 41 42 44 46 49 50 54 57 60 63 65 66 66 65
31 31 31 32 34 35 36 36 35 36 36 36 38 38 38 39 40 41 42 44 45 47 47 48 50 53 56 59 63 65 66 65
29 30 32 33 33 34 34 34 34 35 36 36 36 38 40 40 42 43 43 45 47 47 48 48 50 51 54 57 61 62 61 60
29 30 31 31 34 33 34 33 33 33 34 35 36 36 38 40 42 43 44 46 47 48 48 49 50 50 51 55 58 62 61 59
27 28 29 30 31 31 32 31 31 32 34 34 35 36 37 39 40 40 41 43 44 47 50 50 50 52 52 54 58 61 61 60
27 27 27 28 29 29 30 31 31 31 33 34 34 35 35 36 36 38 39 39 40 41 42 43 45 46 49 50 53 59 60 59
27 27 26 27 27 27 29 29 29 30 31 31 32 33 34 33 34 35 37 37 38 38 39 39 39 40 45 48 50 54 55 55
26 26 25 26 28 27 27 28 29 28 29 29 29 30 32 32 33 34 34 35 35 36 36 37 37 38 39 41 42 44 43 43
25 24 25 26 27 27 28 29 28 27 27 27 26 28 31 32 32 31 31 31 32 34 34 35 36 36 36 37 38 37 38 38
25 25 25 25 26 26 28 28 28 28 26 26 26 27 28 29 30 30 29 29 29 29 31 32 32 33 35 35 36 35 35 34
24 24 24 24 25 27 26 27 28 27 25 26 25 25 25 27 27 28 27 26 26 27 27 29 31 32 34 34 34 32 32 32
24 24 24 24 26 27 28 28 28 27 26 25 25 23 22 24 25 24 25 24 24 24 26 27 29 31 33 33 32 31 31 31

GFSFLT1_sfc_temp_129.txt.gz
Temp
44 44 44 43 42 43 44 44 44 44 45 46 47 48 48 50 50 51 55 56 60 60 61 61 63 64 67 68 67 67 67 67
43 43 41 41 41 40 41 40 41 41 42 40 42 43 44 46 49 51 52 54 56 57 58 59 58 64 65 65 67 66 65 65
41 40 39 38 38 38 39 39 39 40 41 40 41 41 43 44 47 48 50 51 52 53 53 55 58 61 63 64 65 65 66 65
37 37 36 36 35 36 37 37 38 39 40 40 39 40 41 41 42 43 46 48 49 51 52 54 57 58 61 62 64 64 63 65
36 35 34 34 34 36 36 37 38 39 39 37 36 34 33 37 38 41 43 45 47 49 50 51 53 56 57 62 63 62 63 63
33 33 33 34 34 35 38 40 38 38 37 37 36 34 35 36 37 38 40 43 45 47 48 49 50 54 57 60 62 61 62 63
32 33 33 32 35 37 38 38 36 39 38 38 37 36 36 36 37 37 38 40 43 45 46 47 49 52 55 59 60 63 63 64
29 29 32 33 34 36 35 35 35 37 37 37 37 37 37 37 38 39 39 41 43 45 45 45 46 48 50 51 53 58 61 63
28 29 32 32 33 33 33 34 34 35 36 36 37 38 37 38 40 41 41 42 43 45 46 47 47 47 48 49 51 54 58 61
27 30 31 31 32 31 32 32 32 32 33 34 36 37 36 37 39 41 42 44 45 46 46 47 48 49 49 49 49 51 56 60
26 30 28 30 30 29 31 31 30 31 33 33 35 35 36 37 38 38 39 41 43 43 45 45 48 49 49 50 50 51 53 57
24 25 27 27 28 28 29 29 29 30 31 32 32 32 34 35 35 36 37 39 39 40 41 42 47 49 50 51 51 52 52 57
24 23 22 24 27 27 27 28 28 28 30 30 30 31 34 33 33 34 36 36 38 38 39 39 40 42 45 48 51 54 54 56
24 23 23 24 26 26 27 28 27 27 28 28 28 28 31 31 31 32 32 34 35 36 36 36 36 38 40 43 45 47 45 45
23 23 25 25 26 26 26 27 27 27 27 26 26 26 28 29 30 29 30 32 32 34 35 35 35 36 37 39 39 40 40 41
24 24 24 25 26 26 27 27 26 26 25 24 24 25 27 27 28 28 28 28 30 31 33 33 34 35 35 35 36 36 36 37
25 25 26 25 25 26 28 27 26 27 24 23 23 24 24 26 25 26 26 26 27 28 29 30 31 32 34 34 34 33 33 33
25 24 24 25 25 27 26 27 27 26 25 23 22 22 21 22 24 23 23 23 25 26 27 29 29 31 33 33 32 31 30 30
25 23 24 24 26 26 28 28 27 25 25 24 23 21 20 20 21 21 21 22 23 23 25 27 29 31 32 32 31 29 28 29

GFSFLT1_sfc_temp_132.txt.gz
Temp
41 41 41 40 39 40 40 41 40 41 42 42 43 43 44 45 46 46 49 51 53 53 55 56 58 59 60 61 63 66 65 66
41 40 39 38 38 37 38 38 39 39 38 37 39 40 40 43 44 46 47 47 50 50 50 51 53 55 58 62 62 62 63 65
38 38 36 35 35 35 37 37 38 38 39 38 38 38 39 41 43 43 43 45 46 48 47 49 51 53 55 60 61 61 61 64
34 35 34 33 33 33 36 37 38 38 39 38 37 38 38 38 38 39 41 43 44 45 46 48 48 50 52 55 60 62 60 62
33 33 32 32 32 34 37 38 37 38 39 37 36 35 34 37 37 39 39 41 42 44 45 46 46 47 49 52 57 62 62 59
30 31 31 32 35 37 35 39 37 39 39 39 37 36 37 39 39 39 41 42 42 42 44 44 45 47 48 50 54 57 61 61
30 31 33 34 37 35 33 37 36 38 36 37 37 36 37 37 38 38 40 42 43 44 45 45 44 44 46 50 54 57 59 61
27 29 30 32 32 30 32 33 32 33 34 35 35 36 36 36 37 38 39 41 42 44 45 45 46 47 46 46 48 50 52 59
26 30 28 30 29 29 31 30 31 33 33 34 33 35 35 36 38 38 39 41 42 45 45 45 45 47 47 46 46 47 50 52
25 28 27 27 29 28 28 30 30 32 32 33 33 33 34 34 36 37 38 40 42 43 43 43 46 46 48 47 46 48 51 52
25 26 26 26 27 27 28 28 29 30 30 31 32 32 34 34 34 34 35 37 38 39 41 42 44 46 47 48 48 49 49 50
22 22 24 24 25 26 27 28 28 28 29 30 30 30 31 32 32 32 33 35 36 37 38 39 40 42 45 48 48 50 50 51
21 19 19 20 21 25 27 28 26 26 28 28 28 28 29 30 29 30 32 32 35 36 37 37 37 39 41 42 45 49 51 52
21 20 20 18 22 26 26 27 25 26 26 26 25 25 27 27 27 28 30 31 32 34 35 35 35 35 37 38 40 41 41 42
21 21 23 24 26 26 26 26 25 25 24 24 23 23 24 25 26 26 28 30 30 32 32 33 34 34 34 35 35 36 37 37
24 23 23 25 26 26 27 26 24 25 23 22 22 23 24 25 25 26 27 27 28 31 31 32 32 33 33 32 33 32 32 33
25 26 26 26 26 26 27 26 24 26 22 21 22 22 22 23 23 24 25 26 27 27 28 29 29 31 33 32 31 30 30 29
25 25 25 25 25 27 25 25 26 25 23 22 21 21 20 20 22 22 22 23 25 25 25 27 27 29 32 32 30 27 27 28
25 24 25 24 25 25 27 26 25 24 24 22 22 21 20 20 20 20 21 22 22 23 23 24 26 28 31 30 29 26 25 25